Wetterdaten: Dienstag, 04.10.2016
Datum Zeit Temp. Aussen Temp. o. S. +5cm Feuchte Auss BlattFeu 1 Luftdruck Regen Sonnenschein Regendauer Solar Windben Empfang
04.10.2016 00:00 12,6 C 11,7 C 10,0 C 92 % 1 lf 1028,1 hPa 0,0 l/m 0 min 0 min 5 W/m 6,3 km/h (2 Bft) 100,00 %
04.10.2016 00:02 12,6 C 11,7 C 10,0 C 92 % 1 lf 1028,1 hPa 0,0 l/m 0 min 0 min 5 W/m 8,4 km/h (2 Bft) 100,00 %
04.10.2016 00:06 12,4 C 11,7 C 10,6 C 92 % 1 lf 1028,2 hPa 0,0 l/m 0 min 0 min 5 W/m 8,4 km/h (2 Bft) 98,95 %
04.10.2016 00:08 12,4 C 11,7 C 10,0 C 92 % 2 lf 1028,4 hPa 0,0 l/m 0 min 0 min 5 W/m 8,4 km/h (2 Bft) 97,87 %
04.10.2016 00:10 12,4 C 11,1 C 10,0 C 92 % 2 lf 1028,4 hPa 0,0 l/m 0 min 0 min 5 W/m 6,3 km/h (2 Bft) 97,87 %
04.10.2016 00:12 12,3 C 11,1 C 10,0 C 92 % 2 lf 1028,4 hPa 0,0 l/m 0 min 0 min 5 W/m 6,3 km/h (2 Bft) 100,00 %
04.10.2016 00:14 12,3 C 11,1 C 10,0 C 92 % 2 lf 1028,4 hPa 0,0 l/m 0 min 0 min 5 W/m 8,4 km/h (2 Bft) 100,00 %
04.10.2016 00:16 12,2 C 11,1 C 10,0 C 92 % 2 lf 1028,4 hPa 0,0 l/m 0 min 0 min 5 W/m 6,3 km/h (2 Bft) 97,87 %
04.10.2016 00:18 12,2 C 11,1 C 10,0 C 92 % 2 lf 1028,4 hPa 0,0 l/m 0 min 0 min 5 W/m 4,2 km/h (1 Bft) 100,00 %
04.10.2016 00:20 12,2 C 11,1 C 10,0 C 92 % 2 lf 1028,4 hPa 0,0 l/m 0 min 0 min 5 W/m 6,3 km/h (2 Bft) 100,00 %
04.10.2016 00:22 12,2 C 11,1 C 10,0 C 92 % 2 lf 1028,4 hPa 0,0 l/m 0 min 0 min 0 W/m 6,3 km/h (2 Bft) 93,48 %
04.10.2016 00:24 12,1 C 11,1 C 10,0 C 92 % 2 lf 1028,4 hPa 0,0 l/m 0 min 0 min 5 W/m 6,3 km/h (2 Bft) 93,62 %
04.10.2016 00:26 12,1 C 11,1 C 10,0 C 92 % 2 lf 1028,4 hPa 0,0 l/m 0 min 0 min 5 W/m 4,2 km/h (1 Bft) 93,62 %
04.10.2016 00:28 12,1 C 11,1 C 10,0 C 93 % 2 lf 1028,4 hPa 0,0 l/m 0 min 0 min 5 W/m 8,4 km/h (2 Bft) 95,74 %
04.10.2016 00:30 12,0 C 11,1 C 10,0 C 93 % 2 lf 1028,4 hPa 0,0 l/m 0 min 0 min 5 W/m 8,4 km/h (2 Bft) 95,74 %
04.10.2016 00:32 12,0 C 11,1 C 10,0 C 93 % 2 lf 1028,5 hPa 0,0 l/m 0 min 0 min 5 W/m 4,2 km/h (1 Bft) 93,62 %
04.10.2016 00:34 12,0 C 11,1 C 10,0 C 93 % 2 lf 1028,5 hPa 0,0 l/m 0 min 0 min 5 W/m 4,2 km/h (1 Bft) 89,36 %
04.10.2016 00:36 11,9 C 11,7 C 10,0 C 93 % 2 lf 1028,5 hPa 0,0 l/m 0 min 0 min 5 W/m 6,3 km/h (2 Bft) 93,48 %
04.10.2016 00:38 11,9 C 11,7 C 10,6 C 93 % 2 lf 1028,6 hPa 0,0 l/m 0 min 0 min 5 W/m 6,3 km/h (2 Bft) 95,74 %
04.10.2016 00:40 11,9 C 11,7 C 10,6 C 93 % 1 lf 1028,5 hPa 0,0 l/m 0 min 0 min 5 W/m 6,3 km/h (2 Bft) 93,62 %
04.10.2016 00:42 11,9 C 11,7 C 10,6 C 93 % 1 lf 1028,6 hPa 0,0 l/m 0 min 0 min 5 W/m 4,2 km/h (1 Bft) 93,62 %
04.10.2016 00:44 11,9 C 11,7 C 10,6 C 93 % 2 lf 1028,6 hPa 0,0 l/m 0 min 0 min 5 W/m 6,3 km/h (2 Bft) 93,62 %
04.10.2016 00:46 11,9 C 11,7 C 10,6 C 93 % 2 lf 1028,6 hPa 0,0 l/m 0 min 0 min 5 W/m 6,3 km/h (2 Bft) 95,65 %
04.10.2016 00:48 11,9 C 11,1 C 10,0 C 93 % 2 lf 1028,6 hPa 0,0 l/m 0 min 0 min 5 W/m 6,3 km/h (2 Bft) 95,74 %
04.10.2016 00:50 11,9 C 11,1 C 10,0 C 93 % 2 lf 1028,6 hPa 0,0 l/m 0 min 0 min 5 W/m 4,2 km/h (1 Bft) 95,74 %
04.10.2016 00:52 11,9 C 11,1 C 10,0 C 93 % 2 lf 1028,6 hPa 0,0 l/m 0 min 0 min 5 W/m 12,6 km/h (3 Bft) 91,49 %
04.10.2016 00:54 11,9 C 11,1 C 10,0 C 93 % 2 lf 1028,6 hPa 0,0 l/m 0 min 0 min 5 W/m 6,3 km/h (2 Bft) 93,62 %
04.10.2016 00:56 11,8 C 11,1 C 9,4 C 93 % 2 lf 1028,7 hPa 0,0 l/m 0 min 0 min 5 W/m 6,3 km/h (2 Bft) 91,49 %
04.10.2016 00:58 11,8 C 10,6 C 9,4 C 93 % 2 lf 1028,7 hPa 0,0 l/m 0 min 0 min 5 W/m 6,3 km/h (2 Bft) 97,83 %
04.10.2016 01:00 11,8 C 10,6 C 9,4 C 93 % 2 lf 1028,7 hPa 0,0 l/m 0 min 0 min 5 W/m 4,2 km/h (1 Bft) 95,74 %
04.10.2016 01:02 11,8 C 10,6 C 9,4 C 93 % 3 lf 1028,7 hPa 0,0 l/m 0 min 0 min 5 W/m 4,2 km/h (1 Bft) 93,62 %
04.10.2016 01:04 11,8 C 10,6 C 8,9 C 93 % 3 lf 1028,8 hPa 0,0 l/m 0 min 0 min 5 W/m 2,1 km/h (1 Bft) 95,74 %
04.10.2016 01:06 11,8 C 10,6 C 8,9 C 93 % 3 lf 1028,8 hPa 0,0 l/m 0 min 0 min 5 W/m 0,0 km/h (0 Bft) 93,62 %
04.10.2016 01:08 11,7 C 10,6 C 8,9 C 93 % 3 lf 1028,8 hPa 0,0 l/m 0 min 0 min 5 W/m 0,0 km/h (0 Bft) 91,49 %
04.10.2016 01:10 11,7 C 10,0 C 8,9 C 93 % 3 lf 1028,8 hPa 0,0 l/m 0 min 0 min 5 W/m 0,0 km/h (0 Bft) 95,65 %
04.10.2016 01:12 11,7 C 10,0 C 8,9 C 93 % 3 lf 1028,9 hPa 0,0 l/m 0 min 0 min 5 W/m 6,3 km/h (2 Bft) 97,87 %
04.10.2016 01:14 11,7 C 10,0 C 8,9 C 93 % 4 lf 1028,9 hPa 0,0 l/m 0 min 0 min 0 W/m 4,2 km/h (1 Bft) 100,00 %
04.10.2016 01:16 11,6 C 10,0 C 8,9 C 93 % 4 lf 1029,0 hPa 0,0 l/m 0 min 0 min 0 W/m 4,2 km/h (1 Bft) 97,87 %
04.10.2016 01:18 11,6 C 10,0 C 8,9 C 93 % 4 lf 1029,0 hPa 0,0 l/m 0 min 0 min 0 W/m 4,2 km/h (1 Bft) 97,87 %
04.10.2016 01:20 11,6 C 10,0 C 8,9 C 93 % 4 lf 1029,0 hPa 0,0 l/m 0 min 0 min 2 W/m 0,0 km/h (0 Bft) 97,87 %
04.10.2016 01:22 11,5 C 10,0 C 8,3 C 93 % 4 lf 1029,0 hPa 0,0 l/m 0 min 0 min 0 W/m 0,0 km/h (0 Bft) 97,83 %
04.10.2016 01:24 11,5 C 10,0 C 8,3 C 93 % 5 lf 1029,0 hPa 0,0 l/m 0 min 0 min 0 W/m 4,2 km/h (1 Bft) 95,74 %
04.10.2016 01:26 11,4 C 10,0 C 8,3 C 93 % 6 lf 1028,9 hPa 0,0 l/m 0 min 0 min 2 W/m 2,1 km/h (1 Bft) 97,87 %
04.10.2016 01:28 11,4 C 10,0 C 8,3 C 93 % 7 lf 1028,9 hPa 0,0 l/m 0 min 0 min 0 W/m 2,1 km/h (1 Bft) 95,74 %
04.10.2016 01:30 11,4 C 10,0 C 8,3 C 93 % 7 lf 1029,1 hPa 0,0 l/m 0 min 0 min 1 W/m 2,1 km/h (1 Bft) 95,74 %
04.10.2016 01:32 11,3 C 10,0 C 8,3 C 93 % 8 lf 1029,1 hPa 0,0 l/m 0 min 0 min 1 W/m 2,1 km/h (1 Bft) 97,87 %
04.10.2016 01:34 11,3 C 9,4 C 8,3 C 93 % 9 lf 1029,1 hPa 0,0 l/m 0 min 0 min 0 W/m 0,0 km/h (0 Bft) 95,65 %
04.10.2016 01:36 11,3 C 9,4 C 8,3 C 93 % 9 lf 1029,1 hPa 0,0 l/m 0 min 0 min 5 W/m 2,1 km/h (1 Bft) 97,87 %
04.10.2016 01:38 11,2 C 9,4 C 8,3 C 93 % 10 lf 1029,1 hPa 0,0 l/m 0 min 0 min 5 W/m 4,2 km/h (1 Bft) 97,87 %
04.10.2016 01:40 11,2 C 9,4 C 7,8 C 93 % 11 lf 1029,2 hPa 0,0 l/m 0 min 0 min 5 W/m 6,3 km/h (2 Bft) 97,87 %
04.10.2016 01:42 11,1 C 9,4 C 7,8 C 93 % 11 lf 1029,2 hPa 0,0 l/m 0 min 0 min 0 W/m 4,2 km/h (1 Bft) 95,74 %
04.10.2016 01:44 11,1 C 9,4 C 8,3 C 93 % 12 lf 1029,3 hPa 0,0 l/m 0 min 0 min 0 W/m 8,4 km/h (2 Bft) 97,83 %
04.10.2016 01:46 11,1 C 9,4 C 8,3 C 93 % 13 lf 1029,3 hPa 0,0 l/m 0 min 0 min 0 W/m 6,3 km/h (2 Bft) 98,00 %
04.10.2016 01:48 11,0 C 10,0 C 8,3 C 93 % 13 lf 1029,3 hPa 0,0 l/m 0 min 0 min 0 W/m 6,3 km/h (2 Bft) 97,87 %
04.10.2016 01:50 11,0 C 10,0 C 8,3 C 93 % 13 lf 1029,3 hPa 0,0 l/m 0 min 0 min 0 W/m 4,2 km/h (1 Bft) 97,87 %
04.10.2016 01:52 10,9 C 10,0 C 8,3 C 93 % 13 lf 1029,3 hPa 0,0 l/m 0 min 0 min 0 W/m 4,2 km/h (1 Bft) 97,87 %
04.10.2016 01:54 10,9 C 10,0 C 7,8 C 93 % 14 lf 1029,3 hPa 0,0 l/m 0 min 0 min 0 W/m 4,2 km/h (1 Bft) 100,00 %
04.10.2016 01:56 10,9 C 10,0 C 7,8 C 93 % 14 lf 1029,3 hPa 0,0 l/m 0 min 0 min 0 W/m 4,2 km/h (1 Bft) 97,83 %
04.10.2016 01:58 10,9 C 10,0 C 7,8 C 93 % 14 lf 1029,3 hPa 0,0 l/m 0 min 0 min 0 W/m 6,3 km/h (2 Bft) 97,87 %
04.10.2016 02:00 10,8 C 10,0 C 7,8 C 93 % 14 lf 1029,3 hPa 0,0 l/m 0 min 0 min 0 W/m 4,2 km/h (1 Bft) 95,74 %
04.10.2016 02:02 10,8 C 10,0 C 7,8 C 93 % 15 lf 1029,3 hPa 0,0 l/m 0 min 0 min 0 W/m 4,2 km/h (1 Bft) 100,00 %
04.10.2016 02:04 10,8 C 10,0 C 7,8 C 93 % 15 lf 1029,3 hPa 0,0 l/m 0 min 0 min 0 W/m 6,3 km/h (2 Bft) 100,00 %
04.10.2016 02:06 10,8 C 10,0 C 7,8 C 93 % 15 lf 1029,2 hPa 0,0 l/m 0 min 0 min 0 W/m 4,2 km/h (1 Bft) 100,00 %
04.10.2016 02:08 10,7 C 9,4 C 7,8 C 93 % 15 lf 1029,3 hPa 0,0 l/m 0 min 0 min 0 W/m 6,3 km/h (2 Bft) 97,83 %
04.10.2016 02:10 10,7 C 9,4 C 7,8 C 93 % 15 lf 1029,2 hPa 0,0 l/m 0 min 0 min 0 W/m 6,3 km/h (2 Bft) 100,00 %
04.10.2016 02:12 10,7 C 10,0 C 7,8 C 93 % 15 lf 1029,3 hPa 0,0 l/m 0 min 0 min 2 W/m 4,2 km/h (1 Bft) 97,87 %
04.10.2016 02:14 10,7 C 10,0 C 7,8 C 93 % 15 lf 1029,3 hPa 0,0 l/m 0 min 0 min 4 W/m 4,2 km/h (1 Bft) 95,74 %
04.10.2016 02:16 10,7 C 9,4 C 7,8 C 93 % 15 lf 1029,3 hPa 0,0 l/m 0 min 0 min 0 W/m 4,2 km/h (1 Bft) 95,74 %
04.10.2016 02:18 10,6 C 9,4 C 7,8 C 93 % 15 lf 1029,4 hPa 0,0 l/m 0 min 0 min 0 W/m 4,2 km/h (1 Bft) 97,87 %
04.10.2016 02:20 10,6 C 9,4 C 7,8 C 93 % 15 lf 1029,5 hPa 0,0 l/m 0 min 0 min 0 W/m 4,2 km/h (1 Bft) 100,00 %
04.10.2016 02:22 10,6 C 9,4 C 7,8 C 93 % 15 lf 1029,5 hPa 0,0 l/m 0 min 0 min 0 W/m 4,2 km/h (1 Bft) 95,74 %
04.10.2016 02:24 10,6 C 9,4 C 7,8 C 93 % 15 lf 1029,4 hPa 0,0 l/m 0 min 0 min 0 W/m 6,3 km/h (2 Bft) 97,87 %
04.10.2016 02:26 10,6 C 9,4 C 7,8 C 93 % 15 lf 1029,4 hPa 0,0 l/m 0 min 0 min 0 W/m 6,3 km/h (2 Bft) 95,74 %
04.10.2016 02:28 10,5 C 9,4 C 7,8 C 93 % 15 lf 1029,4 hPa 0,0 l/m 0 min 0 min 0 W/m 4,2 km/h (1 Bft) 97,87 %
04.10.2016 02:30 10,5 C 9,4 C 7,8 C 93 % 15 lf 1029,3 hPa 0,0 l/m 0 min 0 min 0 W/m 2,1 km/h (1 Bft) 95,65 %
04.10.2016 02:32 10,4 C 8,9 C 7,8 C 93 % 15 lf 1029,3 hPa 0,0 l/m 0 min 0 min 2 W/m 2,1 km/h (1 Bft) 97,87 %
04.10.2016 02:34 10,4 C 8,9 C 7,8 C 93 % 15 lf 1029,3 hPa 0,0 l/m 0 min 0 min 5 W/m 4,2 km/h (1 Bft) 97,87 %
04.10.2016 02:36 10,4 C 8,9 C 7,8 C 93 % 15 lf 1029,3 hPa 0,0 l/m 0 min 0 min 1 W/m 4,2 km/h (1 Bft) 97,87 %
04.10.2016 02:38 10,4 C 9,4 C 7,8 C 93 % 15 lf 1029,3 hPa 0,0 l/m 0 min 0 min 0 W/m 4,2 km/h (1 Bft) 97,87 %
04.10.2016 02:40 10,4 C 8,9 C 7,8 C 93 % 15 lf 1029,4 hPa 0,0 l/m 0 min 0 min 0 W/m 6,3 km/h (2 Bft) 95,74 %
04.10.2016 02:42 10,3 C 9,4 C 7,2 C 93 % 15 lf 1029,4 hPa 0,0 l/m 0 min 0 min 4 W/m 4,2 km/h (1 Bft) 95,65 %
04.10.2016 02:44 10,3 C 9,4 C 7,8 C 93 % 15 lf 1029,5 hPa 0,0 l/m 0 min 0 min 5 W/m 4,2 km/h (1 Bft) 97,87 %
04.10.2016 02:46 10,3 C 9,4 C 7,8 C 93 % 15 lf 1029,6 hPa 0,0 l/m 0 min 0 min 5 W/m 6,3 km/h (2 Bft) 97,87 %
04.10.2016 02:48 10,3 C 9,4 C 7,8 C 93 % 15 lf 1029,6 hPa 0,0 l/m 0 min 0 min 1 W/m 6,3 km/h (2 Bft) 97,87 %
04.10.2016 02:50 10,3 C 9,4 C 7,8 C 93 % 15 lf 1029,7 hPa 0,0 l/m 0 min 0 min 0 W/m 4,2 km/h (1 Bft) 95,74 %
04.10.2016 02:52 10,2 C 8,9 C 7,2 C 93 % 15 lf 1029,6 hPa 0,0 l/m 0 min 0 min 0 W/m 4,2 km/h (1 Bft) 97,87 %
04.10.2016 02:54 10,2 C 8,9 C 7,2 C 93 % 15 lf 1029,6 hPa 0,0 l/m 0 min 0 min 0 W/m 4,2 km/h (1 Bft) 93,48 %
04.10.2016 02:56 10,2 C 8,9 C 7,2 C 93 % 15 lf 1029,7 hPa 0,0 l/m 0 min 0 min 0 W/m 6,3 km/h (2 Bft) 97,87 %
04.10.2016 02:58 10,2 C 8,9 C 7,8 C 93 % 15 lf 1029,7 hPa 0,0 l/m 0 min 0 min 1 W/m 6,3 km/h (2 Bft) 97,87 %
04.10.2016 03:00 10,2 C 8,9 C 7,2 C 94 % 15 lf 1029,8 hPa 0,0 l/m 0 min 0 min 5 W/m 4,2 km/h (1 Bft) 97,87 %
04.10.2016 03:02 10,1 C 8,9 C 7,2 C 94 % 15 lf 1029,8 hPa 0,0 l/m 0 min 0 min 5 W/m 4,2 km/h (1 Bft) 95,74 %
04.10.2016 03:04 10,1 C 8,3 C 7,2 C 94 % 15 lf 1029,8 hPa 0,0 l/m 0 min 0 min 5 W/m 2,1 km/h (1 Bft) 97,87 %
04.10.2016 03:06 10,1 C 8,3 C 7,2 C 93 % 15 lf 1029,8 hPa 0,0 l/m 0 min 0 min 1 W/m 2,1 km/h (1 Bft) 97,83 %
04.10.2016 03:08 10,1 C 8,3 C 7,2 C 93 % 15 lf 1029,8 hPa 0,0 l/m 0 min 0 min 0 W/m 2,1 km/h (1 Bft) 95,74 %
04.10.2016 03:10 10,1 C 8,3 C 7,2 C 93 % 15 lf 1029,8 hPa 0,0 l/m 0 min 0 min 0 W/m 0,0 km/h (0 Bft) 95,74 %
04.10.2016 03:12 10,1 C 8,3 C 7,2 C 93 % 15 lf 1029,8 hPa 0,0 l/m 0 min 0 min 0 W/m 0,0 km/h (0 Bft) 95,74 %
04.10.2016 03:14 10,1 C 8,3 C 7,2 C 93 % 15 lf 1029,8 hPa 0,0 l/m 0 min 0 min 2 W/m 0,0 km/h (0 Bft) 93,62 %
04.10.2016 03:16 10,0 C 8,3 C 7,2 C 94 % 15 lf 1029,8 hPa 0,0 l/m 0 min 0 min 5 W/m 0,0 km/h (0 Bft) 91,49 %
04.10.2016 03:18 10,0 C 8,3 C 7,2 C 94 % 15 lf 1029,9 hPa 0,0 l/m 0 min 0 min 5 W/m 0,0 km/h (0 Bft) 93,48 %
04.10.2016 03:20 10,0 C 8,3 C 7,2 C 94 % 15 lf 1029,7 hPa 0,0 l/m 0 min 0 min 0 W/m 0,0 km/h (0 Bft) 91,49 %
04.10.2016 03:22 9,9 C 8,3 C 7,2 C 94 % 15 lf 1029,9 hPa 0,0 l/m 0 min 0 min 0 W/m 0,0 km/h (0 Bft) 91,49 %
04.10.2016 03:24 9,9 C 8,3 C 7,2 C 94 % 15 lf 1029,8 hPa 0,0 l/m 0 min 0 min 0 W/m 0,0 km/h (0 Bft) 91,49 %
04.10.2016 03:26 9,9 C 8,3 C 6,7 C 94 % 15 lf 1029,8 hPa 0,0 l/m 0 min 0 min 0 W/m 0,0 km/h (0 Bft) 89,36 %
04.10.2016 03:28 9,9 C 7,8 C 6,7 C 94 % 15 lf 1029,9 hPa 0,0 l/m 0 min 0 min 0 W/m 0,0 km/h (0 Bft) 87,23 %
04.10.2016 03:30 9,8 C 7,8 C 6,7 C 94 % 15 lf 1029,8 hPa 0,0 l/m 0 min 0 min 5 W/m 0,0 km/h (0 Bft) 93,48 %
04.10.2016 03:32 9,8 C 7,8 C 6,7 C 94 % 15 lf 1029,9 hPa 0,0 l/m 0 min 0 min 5 W/m 0,0 km/h (0 Bft) 91,49 %
04.10.2016 03:34 9,8 C 7,8 C 6,7 C 94 % 15 lf 1029,9 hPa 0,0 l/m 0 min 0 min 5 W/m 0,0 km/h (0 Bft) 89,36 %
04.10.2016 03:36 9,8 C 7,8 C 6,7 C 94 % 15 lf 1029,9 hPa 0,0 l/m 0 min 0 min 5 W/m 0,0 km/h (0 Bft) 91,49 %
04.10.2016 03:38 9,7 C 7,8 C 6,7 C 93 % 15 lf 1030,0 hPa 0,0 l/m 0 min 0 min 5 W/m 0,0 km/h (0 Bft) 93,62 %
04.10.2016 03:40 9,7 C 7,8 C 6,7 C 93 % 15 lf 1029,9 hPa 0,0 l/m 0 min 0 min 5 W/m 0,0 km/h (0 Bft) 91,30 %
04.10.2016 03:42 9,7 C 7,8 C 6,7 C 93 % 15 lf 1030,0 hPa 0,0 l/m 0 min 0 min 5 W/m 0,0 km/h (0 Bft) 91,49 %
04.10.2016 03:44 9,6 C 7,8 C 6,7 C 93 % 15 lf 1029,9 hPa 0,0 l/m 0 min 0 min 5 W/m 0,0 km/h (0 Bft) 93,62 %
04.10.2016 03:46 9,6 C 7,8 C 6,7 C 93 % 15 lf 1029,9 hPa 0,0 l/m 0 min 0 min 0 W/m 0,0 km/h (0 Bft) 91,49 %
04.10.2016 03:48 9,6 C 7,8 C 6,7 C 93 % 15 lf 1030,0 hPa 0,0 l/m 0 min 0 min 0 W/m 0,0 km/h (0 Bft) 93,62 %
04.10.2016 03:50 9,5 C 7,8 C 6,7 C 94 % 15 lf 1029,9 hPa 0,0 l/m 0 min 0 min 0 W/m 0,0 km/h (0 Bft) 95,74 %
04.10.2016 03:52 9,5 C 7,8 C 6,7 C 94 % 15 lf 1029,9 hPa 0,0 l/m 0 min 0 min 0 W/m 0,0 km/h (0 Bft) 93,48 %
04.10.2016 03:54 9,4 C 7,8 C 6,7 C 94 % 15 lf 1029,9 hPa 0,0 l/m 0 min 0 min 0 W/m 0,0 km/h (0 Bft) 95,74 %
04.10.2016 03:56 9,4 C 7,8 C 7,2 C 94 % 15 lf 1029,9 hPa 0,0 l/m 0 min 0 min 0 W/m 4,2 km/h (1 Bft) 95,74 %
04.10.2016 03:58 9,4 C 8,3 C 7,2 C 93 % 15 lf 1030,0 hPa 0,0 l/m 0 min 0 min 0 W/m 6,3 km/h (2 Bft) 89,36 %
04.10.2016 04:00 9,4 C 8,3 C 7,2 C 94 % 15 lf 1029,9 hPa 0,0 l/m 0 min 0 min 0 W/m 6,3 km/h (2 Bft) 97,87 %
04.10.2016 04:02 9,3 C 8,3 C 7,2 C 94 % 15 lf 1029,9 hPa 0,0 l/m 0 min 0 min 0 W/m 4,2 km/h (1 Bft) 100,00 %
04.10.2016 04:04 9,3 C 8,3 C 7,2 C 94 % 15 lf 1029,8 hPa 0,0 l/m 0 min 0 min 0 W/m 4,2 km/h (1 Bft) 91,30 %
04.10.2016 04:06 9,3 C 8,3 C 7,2 C 94 % 15 lf 1029,9 hPa 0,0 l/m 0 min 0 min 0 W/m 2,1 km/h (1 Bft) 100,00 %
04.10.2016 04:08 9,3 C 8,3 C 7,2 C 94 % 15 lf 1029,8 hPa 0,0 l/m 0 min 0 min 0 W/m 4,2 km/h (1 Bft) 97,87 %
04.10.2016 04:10 9,3 C 8,3 C 7,2 C 94 % 15 lf 1029,8 hPa 0,0 l/m 0 min 0 min 0 W/m 4,2 km/h (1 Bft) 97,87 %
04.10.2016 04:12 9,3 C 8,3 C 7,2 C 94 % 15 lf 1029,7 hPa 0,0 l/m 0 min 0 min 0 W/m 6,3 km/h (2 Bft) 97,87 %
04.10.2016 04:14 9,3 C 8,3 C 7,2 C 94 % 15 lf 1029,8 hPa 0,0 l/m 0 min 0 min 0 W/m 6,3 km/h (2 Bft) 100,00 %
04.10.2016 04:16 9,3 C 8,3 C 7,2 C 94 % 15 lf 1029,9 hPa 0,0 l/m 0 min 0 min 0 W/m 6,3 km/h (2 Bft) 95,65 %
04.10.2016 04:18 9,3 C 8,3 C 7,8 C 94 % 15 lf 1029,9 hPa 0,0 l/m 0 min 0 min 0 W/m 6,3 km/h (2 Bft) 100,00 %
04.10.2016 04:20 9,3 C 8,3 C 7,2 C 94 % 15 lf 1029,9 hPa 0,0 l/m 0 min 0 min 0 W/m 6,3 km/h (2 Bft) 95,74 %
04.10.2016 04:22 9,3 C 8,3 C 7,8 C 94 % 15 lf 1029,9 hPa 0,0 l/m 0 min 0 min 0 W/m 6,3 km/h (2 Bft) 100,00 %
04.10.2016 04:24 9,3 C 8,9 C 7,8 C 94 % 15 lf 1030,0 hPa 0,0 l/m 0 min 0 min 0 W/m 8,4 km/h (2 Bft) 100,00 %
04.10.2016 04:26 9,3 C 8,9 C 7,8 C 94 % 15 lf 1030,0 hPa 0,0 l/m 0 min 0 min 0 W/m 10,5 km/h (2 Bft) 97,87 %
04.10.2016 04:28 9,3 C 8,9 C 7,8 C 95 % 15 lf 1030,0 hPa 0,0 l/m 0 min 0 min 0 W/m 8,4 km/h (2 Bft) 97,83 %
04.10.2016 04:30 9,4 C 8,9 C 7,8 C 95 % 15 lf 1030,0 hPa 0,0 l/m 0 min 0 min 0 W/m 8,4 km/h (2 Bft) 100,00 %
04.10.2016 04:32 9,4 C 8,9 C 8,3 C 95 % 15 lf 1030,1 hPa 0,0 l/m 0 min 0 min 0 W/m 8,4 km/h (2 Bft) 97,87 %
04.10.2016 04:34 9,4 C 9,4 C 8,3 C 95 % 15 lf 1030,1 hPa 0,0 l/m 0 min 0 min 0 W/m 8,4 km/h (2 Bft) 100,00 %
04.10.2016 04:36 9,4 C 9,4 C 8,3 C 95 % 15 lf 1030,1 hPa 0,0 l/m 0 min 0 min 0 W/m 10,5 km/h (2 Bft) 97,87 %
04.10.2016 04:38 9,5 C 9,4 C 8,3 C 95 % 15 lf 1030,2 hPa 0,0 l/m 0 min 0 min 0 W/m 10,5 km/h (2 Bft) 100,00 %
04.10.2016 04:40 9,6 C 9,4 C 8,9 C 95 % 15 lf 1030,2 hPa 0,0 l/m 0 min 0 min 0 W/m 10,5 km/h (2 Bft) 100,00 %
04.10.2016 04:42 9,6 C 9,4 C 8,9 C 95 % 15 lf 1030,2 hPa 0,0 l/m 0 min 0 min 0 W/m 8,4 km/h (2 Bft) 100,00 %
04.10.2016 04:44 9,6 C 10,0 C 8,9 C 95 % 15 lf 1030,2 hPa 0,0 l/m 0 min 0 min 0 W/m 10,5 km/h (2 Bft) 97,87 %
04.10.2016 04:46 9,7 C 10,0 C 8,9 C 95 % 15 lf 1030,3 hPa 0,0 l/m 0 min 0 min 0 W/m 12,6 km/h (3 Bft) 100,00 %
04.10.2016 04:48 9,7 C 10,0 C 8,9 C 95 % 15 lf 1030,3 hPa 0,0 l/m 0 min 0 min 0 W/m 14,6 km/h (3 Bft) 97,87 %
04.10.2016 04:50 9,8 C 10,0 C 8,9 C 96 % 15 lf 1030,2 hPa 0,0 l/m 0 min 0 min 0 W/m 12,6 km/h (3 Bft) 97,83 %
04.10.2016 04:52 9,9 C 10,0 C 8,9 C 96 % 15 lf 1030,2 hPa 0,0 l/m 0 min 0 min 0 W/m 10,5 km/h (2 Bft) 97,87 %
04.10.2016 04:54 9,9 C 10,0 C 8,9 C 96 % 15 lf 1030,2 hPa 0,0 l/m 0 min 0 min 0 W/m 14,6 km/h (3 Bft) 97,87 %
04.10.2016 04:56 10,0 C 10,0 C 8,9 C 96 % 15 lf 1030,2 hPa 0,0 l/m 0 min 0 min 0 W/m 10,5 km/h (2 Bft) 97,87 %
04.10.2016 04:58 10,1 C 10,0 C 9,4 C 96 % 15 lf 1030,2 hPa 0,0 l/m 0 min 0 min 0 W/m 12,6 km/h (3 Bft) 97,87 %
04.10.2016 05:00 10,1 C 10,0 C 9,4 C 96 % 15 lf 1030,2 hPa 0,0 l/m 0 min 0 min 0 W/m 8,4 km/h (2 Bft) 97,87 %
04.10.2016 05:02 10,2 C 10,0 C 9,4 C 96 % 15 lf 1030,3 hPa 0,0 l/m 0 min 0 min 0 W/m 8,4 km/h (2 Bft) 97,83 %
04.10.2016 05:04 10,2 C 10,6 C 9,4 C 96 % 15 lf 1030,3 hPa 0,0 l/m 0 min 0 min 0 W/m 14,6 km/h (3 Bft) 97,87 %
04.10.2016 05:06 10,2 C 10,6 C 9,4 C 96 % 15 lf 1030,3 hPa 0,0 l/m 0 min 0 min 0 W/m 8,4 km/h (2 Bft) 95,74 %
04.10.2016 05:08 10,3 C 10,6 C 9,4 C 96 % 15 lf 1030,3 hPa 0,0 l/m 0 min 0 min 0 W/m 14,6 km/h (3 Bft) 95,74 %
04.10.2016 05:10 10,3 C 10,6 C 9,4 C 96 % 15 lf 1030,3 hPa 0,0 l/m 0 min 0 min 0 W/m 10,5 km/h (2 Bft) 97,87 %
04.10.2016 05:12 10,4 C 10,6 C 9,4 C 96 % 15 lf 1030,2 hPa 0,0 l/m 0 min 0 min 0 W/m 14,6 km/h (3 Bft) 93,62 %
04.10.2016 05:14 10,4 C 10,6 C 9,4 C 96 % 15 lf 1030,2 hPa 0,0 l/m 0 min 0 min 0 W/m 10,5 km/h (2 Bft) 93,48 %
04.10.2016 05:16 10,4 C 10,6 C 9,4 C 97 % 15 lf 1030,2 hPa 0,0 l/m 0 min 0 min 0 W/m 8,4 km/h (2 Bft) 93,62 %
04.10.2016 05:18 10,4 C 10,6 C 9,4 C 97 % 15 lf 1030,2 hPa 0,0 l/m 0 min 0 min 0 W/m 12,6 km/h (3 Bft) 97,87 %
04.10.2016 05:20 10,5 C 10,6 C 9,4 C 96 % 15 lf 1030,2 hPa 0,0 l/m 0 min 0 min 0 W/m 8,4 km/h (2 Bft) 93,62 %
04.10.2016 05:22 10,5 C 10,6 C 9,4 C 97 % 15 lf 1030,3 hPa 0,0 l/m 0 min 0 min 0 W/m 12,6 km/h (3 Bft) 97,87 %
04.10.2016 05:24 10,6 C 10,6 C 9,4 C 97 % 15 lf 1030,3 hPa 0,0 l/m 0 min 0 min 0 W/m 12,6 km/h (3 Bft) 95,74 %
04.10.2016 05:26 10,6 C 10,6 C 9,4 C 97 % 15 lf 1030,3 hPa 0,0 l/m 0 min 0 min 0 W/m 12,6 km/h (3 Bft) 97,83 %
04.10.2016 05:28 10,6 C 10,6 C 9,4 C 97 % 15 lf 1030,3 hPa 0,0 l/m 0 min 0 min 0 W/m 10,5 km/h (2 Bft) 97,87 %
04.10.2016 05:30 10,6 C 10,6 C 9,4 C 97 % 15 lf 1030,3 hPa 0,0 l/m 0 min 0 min 0 W/m 16,7 km/h (3 Bft) 95,74 %
04.10.2016 05:32 10,6 C 10,6 C 9,4 C 97 % 15 lf 1030,3 hPa 0,0 l/m 0 min 0 min 0 W/m 10,5 km/h (2 Bft) 97,87 %
04.10.2016 05:34 10,6 C 10,6 C 9,4 C 97 % 15 lf 1030,3 hPa 0,0 l/m 0 min 0 min 0 W/m 12,6 km/h (3 Bft) 97,87 %
04.10.2016 05:36 10,6 C 10,6 C 9,4 C 97 % 15 lf 1030,3 hPa 0,0 l/m 0 min 0 min 0 W/m 12,6 km/h (3 Bft) 97,87 %
04.10.2016 05:38 10,6 C 10,6 C 9,4 C 97 % 15 lf 1030,3 hPa 0,0 l/m 0 min 0 min 0 W/m 8,4 km/h (2 Bft) 97,83 %
04.10.2016 05:40 10,6 C 10,6 C 9,4 C 97 % 15 lf 1030,3 hPa 0,0 l/m 0 min 0 min 0 W/m 8,4 km/h (2 Bft) 97,87 %
04.10.2016 05:42 10,7 C 10,6 C 9,4 C 97 % 15 lf 1030,4 hPa 0,0 l/m 0 min 0 min 0 W/m 14,6 km/h (3 Bft) 100,00 %
04.10.2016 05:44 10,7 C 10,6 C 9,4 C 97 % 15 lf 1030,4 hPa 0,0 l/m 0 min 0 min 0 W/m 8,4 km/h (2 Bft) 100,00 %
04.10.2016 05:46 10,7 C 10,6 C 9,4 C 97 % 15 lf 1030,3 hPa 0,0 l/m 0 min 0 min 0 W/m 8,4 km/h (2 Bft) 100,00 %
04.10.2016 05:48 10,7 C 10,6 C 9,4 C 97 % 15 lf 1030,3 hPa 0,0 l/m 0 min 0 min 0 W/m 10,5 km/h (2 Bft) 97,87 %
04.10.2016 05:50 10,7 C 10,6 C 9,4 C 97 % 15 lf 1030,3 hPa 0,0 l/m 0 min 0 min 0 W/m 10,5 km/h (2 Bft) 100,00 %
04.10.2016 05:52 10,7 C 10,6 C 9,4 C 97 % 15 lf 1030,4 hPa 0,0 l/m 0 min 0 min 0 W/m 10,5 km/h (2 Bft) 97,87 %
04.10.2016 05:54 10,7 C 10,6 C 9,4 C 97 % 15 lf 1030,4 hPa 0,0 l/m 0 min 0 min 0 W/m 14,6 km/h (3 Bft) 100,00 %
04.10.2016 05:56 10,7 C 10,6 C 9,4 C 97 % 15 lf 1030,4 hPa 0,0 l/m 0 min 0 min 0 W/m 14,6 km/h (3 Bft) 95,74 %
04.10.2016 05:58 10,7 C 10,6 C 9,4 C 97 % 15 lf 1030,4 hPa 0,0 l/m 0 min 0 min 0 W/m 8,4 km/h (2 Bft) 97,87 %
04.10.2016 06:00 10,7 C 10,6 C 9,4 C 97 % 15 lf 1030,4 hPa 0,0 l/m 0 min 0 min 0 W/m 18,8 km/h (3 Bft) 97,87 %
04.10.2016 06:02 10,7 C 10,6 C 9,4 C 97 % 15 lf 1030,4 hPa 0,0 l/m 0 min 0 min 0 W/m 8,4 km/h (2 Bft) 93,48 %
04.10.2016 06:04 10,7 C 10,6 C 9,4 C 97 % 15 lf 1030,5 hPa 0,0 l/m 0 min 0 min 0 W/m 6,3 km/h (2 Bft) 95,83 %
04.10.2016 06:06 10,8 C 10,6 C 9,4 C 97 % 15 lf 1030,4 hPa 0,0 l/m 0 min 0 min 0 W/m 8,4 km/h (2 Bft) 97,87 %
04.10.2016 06:08 10,8 C 10,6 C 9,4 C 97 % 15 lf 1030,5 hPa 0,0 l/m 0 min 0 min 0 W/m 8,4 km/h (2 Bft) 97,87 %
04.10.2016 06:10 10,8 C 10,6 C 9,4 C 97 % 15 lf 1030,4 hPa 0,0 l/m 0 min 0 min 0 W/m 8,4 km/h (2 Bft) 95,65 %
04.10.2016 06:12 10,8 C 10,6 C 9,4 C 97 % 15 lf 1030,4 hPa 0,0 l/m 0 min 0 min 0 W/m 10,5 km/h (2 Bft) 97,87 %
04.10.2016 06:14 10,8 C 10,6 C 9,4 C 97 % 15 lf 1030,4 hPa 0,0 l/m 0 min 0 min 0 W/m 10,5 km/h (2 Bft) 95,74 %
04.10.2016 06:16 10,8 C 10,6 C 10,0 C 97 % 15 lf 1030,4 hPa 0,0 l/m 0 min 0 min 0 W/m 8,4 km/h (2 Bft) 95,74 %
04.10.2016 06:18 10,8 C 10,6 C 10,0 C 97 % 15 lf 1030,4 hPa 0,0 l/m 0 min 0 min 0 W/m 8,4 km/h (2 Bft) 95,74 %
04.10.2016 06:20 10,8 C 10,6 C 10,0 C 97 % 15 lf 1030,4 hPa 0,0 l/m 0 min 0 min 0 W/m 8,4 km/h (2 Bft) 95,74 %
04.10.2016 06:22 10,8 C 10,6 C 10,0 C 97 % 15 lf 1030,4 hPa 0,0 l/m 0 min 0 min 0 W/m 8,4 km/h (2 Bft) 91,30 %
04.10.2016 06:24 10,8 C 10,6 C 10,0 C 97 % 15 lf 1030,5 hPa 0,0 l/m 0 min 0 min 0 W/m 8,4 km/h (2 Bft) 91,49 %
04.10.2016 06:26 10,8 C 10,6 C 10,0 C 97 % 15 lf 1030,5 hPa 0,0 l/m 0 min 0 min 0 W/m 8,4 km/h (2 Bft) 91,49 %
04.10.2016 06:28 10,9 C 10,6 C 10,0 C 97 % 15 lf 1030,4 hPa 0,0 l/m 0 min 0 min 0 W/m 12,6 km/h (3 Bft) 89,36 %
04.10.2016 06:30 10,9 C 10,6 C 10,0 C 97 % 15 lf 1030,4 hPa 0,0 l/m 0 min 0 min 0 W/m 12,6 km/h (3 Bft) 93,62 %
04.10.2016 06:32 10,9 C 11,1 C 10,0 C 97 % 15 lf 1030,5 hPa 0,0 l/m 0 min 0 min 0 W/m 16,7 km/h (3 Bft) 91,49 %
04.10.2016 06:34 10,9 C 11,1 C 10,0 C 97 % 15 lf 1030,5 hPa 0,0 l/m 0 min 0 min 0 W/m 18,8 km/h (3 Bft) 93,48 %
04.10.2016 06:36 10,9 C 11,1 C 10,0 C 97 % 15 lf 1030,5 hPa 0,0 l/m 0 min 0 min 0 W/m 16,7 km/h (3 Bft) 93,62 %
04.10.2016 06:38 10,9 C 11,1 C 10,0 C 97 % 15 lf 1030,5 hPa 0,0 l/m 0 min 0 min 0 W/m 10,5 km/h (2 Bft) 91,49 %
04.10.2016 06:40 10,9 C 11,1 C 10,0 C 97 % 15 lf 1030,5 hPa 0,0 l/m 0 min 0 min 0 W/m 14,6 km/h (3 Bft) 91,49 %
04.10.2016 06:42 10,9 C 11,1 C 10,0 C 98 % 15 lf 1030,5 hPa 0,0 l/m 0 min 0 min 0 W/m 10,5 km/h (2 Bft) 93,62 %
04.10.2016 06:44 11,0 C 11,1 C 10,0 C 98 % 15 lf 1030,4 hPa 0,0 l/m 0 min 0 min 0 W/m 8,4 km/h (2 Bft) 95,74 %
04.10.2016 06:46 11,0 C 11,1 C 10,0 C 98 % 15 lf 1030,6 hPa 0,0 l/m 0 min 0 min 0 W/m 8,4 km/h (2 Bft) 93,48 %
04.10.2016 06:48 11,0 C 11,1 C 10,0 C 98 % 15 lf 1030,6 hPa 0,0 l/m 0 min 0 min 0 W/m 10,5 km/h (2 Bft) 93,62 %
04.10.2016 06:50 11,0 C 11,1 C 10,0 C 98 % 15 lf 1030,5 hPa 0,0 l/m 0 min 0 min 0 W/m 6,3 km/h (2 Bft) 93,62 %
04.10.2016 06:52 11,0 C 11,1 C 10,0 C 98 % 15 lf 1030,5 hPa 0,0 l/m 0 min 0 min 0 W/m 10,5 km/h (2 Bft) 95,74 %
04.10.2016 06:54 11,0 C 11,1 C 10,0 C 98 % 15 lf 1030,6 hPa 0,0 l/m 0 min 0 min 0 W/m 10,5 km/h (2 Bft) 95,74 %
04.10.2016 06:56 11,0 C 11,1 C 10,0 C 98 % 15 lf 1030,5 hPa 0,0 l/m 0 min 0 min 0 W/m 16,7 km/h (3 Bft) 93,62 %
04.10.2016 06:58 11,0 C 11,1 C 10,0 C 98 % 15 lf 1030,6 hPa 0,0 l/m 0 min 0 min 0 W/m 14,6 km/h (3 Bft) 95,65 %
04.10.2016 07:00 11,1 C 11,1 C 10,0 C 98 % 15 lf 1030,6 hPa 0,0 l/m 0 min 0 min 0 W/m 10,5 km/h (2 Bft) 94,29 %
04.10.2016 07:02 11,0 C 11,1 C 10,0 C 98 % 15 lf 1030,6 hPa 0,0 l/m 0 min 0 min 0 W/m 10,5 km/h (2 Bft) 91,38 %
04.10.2016 07:04 11,0 C 11,1 C 10,0 C 98 % 15 lf 1030,6 hPa 0,0 l/m 0 min 0 min 0 W/m 8,4 km/h (2 Bft) 91,49 %
04.10.2016 07:06 11,0 C 11,1 C 10,0 C 98 % 15 lf 1030,6 hPa 0,0 l/m 0 min 0 min 0 W/m 16,7 km/h (3 Bft) 93,62 %
04.10.2016 07:08 11,1 C 11,1 C 10,0 C 98 % 15 lf 1030,7 hPa 0,0 l/m 0 min 0 min 0 W/m 14,6 km/h (3 Bft) 93,62 %
04.10.2016 07:10 11,1 C 11,1 C 10,0 C 98 % 14 lf 1030,8 hPa 0,0 l/m 0 min 0 min 0 W/m 10,5 km/h (2 Bft) 93,62 %
04.10.2016 07:12 11,1 C 11,1 C 10,0 C 98 % 13 lf 1030,8 hPa 0,0 l/m 0 min 0 min 0 W/m 10,5 km/h (2 Bft) 95,65 %
04.10.2016 07:14 11,1 C 11,1 C 10,0 C 98 % 12 lf 1030,8 hPa 0,0 l/m 0 min 0 min 0 W/m 10,5 km/h (2 Bft) 91,49 %
04.10.2016 07:16 11,1 C 11,1 C 10,0 C 98 % 10 lf 1030,9 hPa 0,0 l/m 0 min 0 min 0 W/m 6,3 km/h (2 Bft) 93,62 %
04.10.2016 07:18 11,1 C 11,1 C 10,0 C 98 % 9 lf 1030,8 hPa 0,0 l/m 0 min 0 min 0 W/m 8,4 km/h (2 Bft) 93,62 %
04.10.2016 07:19 11,1 C 11,1 C 10,0 C 98 % 8 lf 1030,9 hPa 0,0 l/m 0 min 0 min 0 W/m 6,3 km/h (2 Bft) 95,65 %
04.10.2016 07:22 11,1 C 11,1 C 10,0 C 98 % 5 lf 1030,9 hPa 0,0 l/m 0 min 0 min 0 W/m 8,4 km/h (2 Bft) 94,00 %
04.10.2016 07:24 11,1 C 11,1 C 10,0 C 98 % 4 lf 1030,8 hPa 0,0 l/m 0 min 0 min 0 W/m 12,6 km/h (3 Bft) 95,74 %
04.10.2016 07:26 11,1 C 11,1 C 10,0 C 98 % 4 lf 1030,9 hPa 0,0 l/m 0 min 0 min 0 W/m 8,4 km/h (2 Bft) 95,74 %
04.10.2016 07:28 11,1 C 11,1 C 10,0 C 98 % 4 lf 1030,9 hPa 0,0 l/m 0 min 0 min 7 W/m 14,6 km/h (3 Bft) 94,29 %
04.10.2016 07:30 11,1 C 11,1 C 10,0 C 98 % 4 lf 1030,9 hPa 0,0 l/m 0 min 0 min 7 W/m 10,5 km/h (2 Bft) 96,43 %
04.10.2016 07:32 11,1 C 11,1 C 10,0 C 98 % 3 lf 1031,0 hPa 0,0 l/m 0 min 0 min 7 W/m 10,5 km/h (2 Bft) 97,37 %
04.10.2016 07:34 11,1 C 11,1 C 10,0 C 98 % 3 lf 1031,0 hPa 0,0 l/m 0 min 0 min 7 W/m 10,5 km/h (2 Bft) 100,00 %
04.10.2016 07:36 11,1 C 11,1 C 10,0 C 98 % 3 lf 1030,9 hPa 0,0 l/m 0 min 0 min 7 W/m 8,4 km/h (2 Bft) 98,11 %
04.10.2016 07:38 11,1 C 11,1 C 10,0 C 98 % 3 lf 1030,9 hPa 0,0 l/m 0 min 0 min 7 W/m 8,4 km/h (2 Bft) 100,00 %
04.10.2016 07:40 11,1 C 11,1 C 10,0 C 98 % 3 lf 1030,9 hPa 0,0 l/m 0 min 0 min 8 W/m 6,3 km/h (2 Bft) 97,30 %
04.10.2016 07:42 11,1 C 11,1 C 10,0 C 98 % 3 lf 1031,0 hPa 0,0 l/m 0 min 0 min 9 W/m 6,3 km/h (2 Bft) 100,00 %
04.10.2016 07:44 11,1 C 11,1 C 10,0 C 98 % 3 lf 1031,0 hPa 0,0 l/m 0 min 0 min 7 W/m 6,3 km/h (2 Bft) 100,00 %
04.10.2016 07:46 11,1 C 11,1 C 10,0 C 98 % 3 lf 1031,0 hPa 0,0 l/m 0 min 0 min 7 W/m 10,5 km/h (2 Bft) 100,00 %
04.10.2016 07:48 11,1 C 11,1 C 10,0 C 98 % 3 lf 1031,0 hPa 0,0 l/m 0 min 0 min 9 W/m 4,2 km/h (1 Bft) 100,00 %
04.10.2016 07:50 11,1 C 11,1 C 10,0 C 98 % 3 lf 1031,0 hPa 0,0 l/m 0 min 0 min 9 W/m 8,4 km/h (2 Bft) 100,00 %
04.10.2016 07:52 11,1 C 11,1 C 10,0 C 98 % 3 lf 1031,0 hPa 0,0 l/m 0 min 0 min 9 W/m 10,5 km/h (2 Bft) 97,83 %
04.10.2016 07:54 11,1 C 11,1 C 10,0 C 98 % 3 lf 1031,0 hPa 0,0 l/m 0 min 0 min 9 W/m 14,6 km/h (3 Bft) 100,00 %
04.10.2016 07:56 11,1 C 11,1 C 10,6 C 98 % 3 lf 1031,0 hPa 0,0 l/m 0 min 0 min 11 W/m 14,6 km/h (3 Bft) 96,00 %
04.10.2016 07:58 11,1 C 11,7 C 10,6 C 98 % 3 lf 1031,1 hPa 0,0 l/m 0 min 0 min 11 W/m 12,6 km/h (3 Bft) 100,00 %
04.10.2016 08:00 11,1 C 11,7 C 10,6 C 98 % 3 lf 1031,1 hPa 0,0 l/m 0 min 0 min 12 W/m 16,7 km/h (3 Bft) 100,00 %
04.10.2016 08:02 11,1 C 11,7 C 10,6 C 98 % 3 lf 1031,1 hPa 0,0 l/m 0 min 0 min 12 W/m 14,6 km/h (3 Bft) 100,00 %
04.10.2016 08:04 11,1 C 11,7 C 10,6 C 98 % 2 lf 1031,1 hPa 0,0 l/m 0 min 0 min 13 W/m 12,6 km/h (3 Bft) 100,00 %
04.10.2016 08:06 11,1 C 11,7 C 10,6 C 98 % 2 lf 1031,1 hPa 0,0 l/m 0 min 0 min 14 W/m 10,5 km/h (2 Bft) 100,00 %
04.10.2016 08:08 11,1 C 11,7 C 10,6 C 98 % 2 lf 1031,1 hPa 0,0 l/m 0 min 0 min 14 W/m 8,4 km/h (2 Bft) 100,00 %
04.10.2016 08:10 11,1 C 11,7 C 10,6 C 98 % 2 lf 1031,1 hPa 0,0 l/m 0 min 0 min 16 W/m 10,5 km/h (2 Bft) 97,87 %
04.10.2016 08:12 11,1 C 11,7 C 10,6 C 98 % 2 lf 1031,1 hPa 0,0 l/m 0 min 0 min 15 W/m 6,3 km/h (2 Bft) 97,87 %
04.10.2016 08:14 11,2 C 11,7 C 10,6 C 98 % 2 lf 1031,1 hPa 0,0 l/m 0 min 0 min 18 W/m 8,4 km/h (2 Bft) 94,59 %
04.10.2016 08:16 11,2 C 11,7 C 10,6 C 98 % 2 lf 1031,2 hPa 0,0 l/m 0 min 0 min 18 W/m 6,3 km/h (2 Bft) 97,87 %
04.10.2016 08:18 11,2 C 11,7 C 10,6 C 98 % 2 lf 1031,2 hPa 0,0 l/m 0 min 0 min 19 W/m 6,3 km/h (2 Bft) 100,00 %
04.10.2016 08:20 11,2 C 11,7 C 10,6 C 98 % 2 lf 1031,2 hPa 0,0 l/m 0 min 0 min 22 W/m 10,5 km/h (2 Bft) 100,00 %
04.10.2016 08:22 11,2 C 11,7 C 10,6 C 98 % 2 lf 1031,2 hPa 0,0 l/m 0 min 0 min 22 W/m 8,4 km/h (2 Bft) 100,00 %
04.10.2016 08:24 11,2 C 11,7 C 10,6 C 98 % 2 lf 1031,2 hPa 0,0 l/m 0 min 0 min 22 W/m 8,4 km/h (2 Bft) 97,37 %
04.10.2016 08:26 11,2 C 11,7 C 10,6 C 98 % 2 lf 1031,3 hPa 0,0 l/m 0 min 0 min 24 W/m 12,6 km/h (3 Bft) 97,83 %
04.10.2016 08:28 11,2 C 11,7 C 10,6 C 98 % 2 lf 1031,2 hPa 0,0 l/m 0 min 0 min 23 W/m 6,3 km/h (2 Bft) 100,00 %
04.10.2016 08:30 11,2 C 12,2 C 10,6 C 98 % 2 lf 1031,2 hPa 0,0 l/m 0 min 0 min 23 W/m 12,6 km/h (3 Bft) 100,00 %
04.10.2016 08:32 11,3 C 12,2 C 10,6 C 98 % 2 lf 1031,2 hPa 0,0 l/m 0 min 0 min 26 W/m 16,7 km/h (3 Bft) 96,00 %
04.10.2016 08:34 11,3 C 12,2 C 10,6 C 98 % 2 lf 1031,2 hPa 0,0 l/m 0 min 0 min 28 W/m 8,4 km/h (2 Bft) 97,87 %
04.10.2016 08:36 11,3 C 12,2 C 11,1 C 98 % 2 lf 1031,2 hPa 0,0 l/m 0 min 0 min 25 W/m 14,6 km/h (3 Bft) 100,00 %
04.10.2016 08:38 11,3 C 12,2 C 11,1 C 98 % 2 lf 1031,2 hPa 0,0 l/m 0 min 0 min 25 W/m 14,6 km/h (3 Bft) 100,00 %
04.10.2016 08:40 11,3 C 12,2 C 11,1 C 98 % 2 lf 1031,2 hPa 0,0 l/m 0 min 0 min 25 W/m 10,5 km/h (2 Bft) 97,87 %
04.10.2016 08:42 11,3 C 12,2 C 11,1 C 98 % 2 lf 1031,2 hPa 0,0 l/m 0 min 0 min 27 W/m 6,3 km/h (2 Bft) 95,74 %
04.10.2016 08:44 11,3 C 12,2 C 11,1 C 98 % 2 lf 1031,2 hPa 0,0 l/m 0 min 0 min 29 W/m 14,6 km/h (3 Bft) 93,62 %
04.10.2016 08:46 11,4 C 12,2 C 11,1 C 98 % 2 lf 1031,2 hPa 0,0 l/m 0 min 0 min 31 W/m 14,6 km/h (3 Bft) 98,11 %
04.10.2016 08:48 11,4 C 12,2 C 11,1 C 98 % 2 lf 1031,3 hPa 0,0 l/m 0 min 0 min 29 W/m 14,6 km/h (3 Bft) 96,00 %
04.10.2016 08:50 11,4 C 12,2 C 11,1 C 98 % 2 lf 1031,3 hPa 0,0 l/m 0 min 0 min 31 W/m 10,5 km/h (2 Bft) 91,89 %
04.10.2016 08:52 11,4 C 12,2 C 11,1 C 98 % 2 lf 1031,3 hPa 0,0 l/m 0 min 0 min 38 W/m 8,4 km/h (2 Bft) 91,49 %
04.10.2016 08:54 11,4 C 12,2 C 11,1 C 98 % 2 lf 1031,3 hPa 0,0 l/m 0 min 0 min 40 W/m 6,3 km/h (2 Bft) 93,62 %
04.10.2016 08:56 11,4 C 12,2 C 11,1 C 98 % 2 lf 1031,3 hPa 0,0 l/m 0 min 0 min 44 W/m 12,6 km/h (3 Bft) 96,23 %
04.10.2016 08:58 11,4 C 12,2 C 11,1 C 98 % 2 lf 1031,3 hPa 0,0 l/m 0 min 0 min 40 W/m 12,6 km/h (3 Bft) 96,00 %
04.10.2016 09:00 11,5 C 12,2 C 11,1 C 98 % 2 lf 1031,3 hPa 0,0 l/m 0 min 0 min 41 W/m 10,5 km/h (2 Bft) 89,19 %
04.10.2016 09:01 11,5 C 12,2 C 11,1 C 98 % 2 lf 1031,3 hPa 0,0 l/m 0 min 0 min 46 W/m 12,6 km/h (3 Bft) 95,65 %
04.10.2016 09:02 11,5 C 12,2 C 11,1 C 98 % 2 lf 1031,3 hPa 0,0 l/m 0 min 0 min 49 W/m 8,4 km/h (2 Bft) 95,65 %
04.10.2016 09:03 11,5 C 12,2 C 11,1 C 98 % 2 lf 1031,4 hPa 0,0 l/m 0 min 0 min 51 W/m 10,5 km/h (2 Bft) 91,30 %
04.10.2016 09:10 11,6 C 12,8 C 11,7 C 98 % 1 lf 1031,4 hPa 0,0 l/m 0 min 0 min 55 W/m 10,5 km/h (2 Bft) 94,74 %
04.10.2016 09:12 11,6 C 12,8 C 11,7 C 98 % 1 lf 1031,4 hPa 0,0 l/m 0 min 0 min 63 W/m 6,3 km/h (2 Bft) 95,56 %
04.10.2016 09:14 11,6 C 12,8 C 11,7 C 98 % 1 lf 1031,3 hPa 0,0 l/m 0 min 0 min 69 W/m 6,3 km/h (2 Bft) 93,62 %
04.10.2016 09:16 11,7 C 12,8 C 11,7 C 98 % 1 lf 1031,3 hPa 0,0 l/m 0 min 0 min 75 W/m 16,7 km/h (3 Bft) 93,48 %
04.10.2016 09:18 11,7 C 12,8 C 11,7 C 98 % 1 lf 1031,4 hPa 0,0 l/m 0 min 0 min 74 W/m 10,5 km/h (2 Bft) 91,49 %
04.10.2016 09:20 11,7 C 12,8 C 11,7 C 98 % 1 lf 1031,4 hPa 0,0 l/m 0 min 0 min 66 W/m 6,3 km/h (2 Bft) 93,62 %
04.10.2016 09:22 11,7 C 12,8 C 11,7 C 98 % 1 lf 1031,4 hPa 0,0 l/m 0 min 0 min 62 W/m 10,5 km/h (2 Bft) 91,49 %
04.10.2016 09:24 11,7 C 12,8 C 11,7 C 98 % 1 lf 1031,3 hPa 0,0 l/m 0 min 0 min 64 W/m 12,6 km/h (3 Bft) 91,49 %
04.10.2016 09:26 11,8 C 12,8 C 11,7 C 98 % 1 lf 1031,4 hPa 0,0 l/m 0 min 0 min 67 W/m 16,7 km/h (3 Bft) 95,74 %
04.10.2016 09:28 11,8 C 12,8 C 11,7 C 98 % 1 lf 1031,4 hPa 0,0 l/m 0 min 0 min 61 W/m 12,6 km/h (3 Bft) 95,65 %
04.10.2016 09:30 11,8 C 12,8 C 11,7 C 98 % 1 lf 1031,4 hPa 0,0 l/m 0 min 0 min 56 W/m 12,6 km/h (3 Bft) 97,87 %
04.10.2016 09:32 11,8 C 12,8 C 11,7 C 98 % 1 lf 1031,4 hPa 0,0 l/m 0 min 0 min 58 W/m 6,3 km/h (2 Bft) 97,87 %
04.10.2016 09:34 11,8 C 12,8 C 11,7 C 98 % 1 lf 1031,5 hPa 0,0 l/m 0 min 0 min 55 W/m 23,0 km/h (4 Bft) 93,62 %
04.10.2016 09:36 11,8 C 12,8 C 11,7 C 98 % 1 lf 1031,5 hPa 0,0 l/m 0 min 0 min 51 W/m 10,5 km/h (2 Bft) 95,74 %
04.10.2016 09:38 11,9 C 12,8 C 11,7 C 98 % 1 lf 1031,5 hPa 0,0 l/m 0 min 0 min 49 W/m 16,7 km/h (3 Bft) 97,87 %
04.10.2016 09:40 11,9 C 12,8 C 11,7 C 98 % 1 lf 1031,6 hPa 0,0 l/m 0 min 0 min 52 W/m 16,7 km/h (3 Bft) 95,65 %
04.10.2016 09:42 11,9 C 12,8 C 11,7 C 97 % 1 lf 1031,7 hPa 0,0 l/m 0 min 0 min 59 W/m 10,5 km/h (2 Bft) 97,87 %
04.10.2016 09:44 11,9 C 12,8 C 11,7 C 98 % 1 lf 1031,6 hPa 0,0 l/m 0 min 0 min 60 W/m 10,5 km/h (2 Bft) 93,62 %
04.10.2016 09:46 11,9 C 12,8 C 11,7 C 98 % 1 lf 1031,6 hPa 0,0 l/m 0 min 0 min 58 W/m 16,7 km/h (3 Bft) 97,87 %
04.10.2016 09:48 11,9 C 12,8 C 11,7 C 98 % 1 lf 1031,6 hPa 0,0 l/m 0 min 0 min 59 W/m 14,6 km/h (3 Bft) 97,87 %
04.10.2016 09:50 11,9 C 12,8 C 11,7 C 98 % 1 lf 1031,7 hPa 0,0 l/m 0 min 0 min 59 W/m 16,7 km/h (3 Bft) 95,65 %
04.10.2016 09:52 11,9 C 12,8 C 11,7 C 98 % 1 lf 1031,7 hPa 0,0 l/m 0 min 0 min 60 W/m 14,6 km/h (3 Bft) 97,87 %
04.10.2016 09:54 12,0 C 13,3 C 12,2 C 97 % 1 lf 1031,7 hPa 0,0 l/m 0 min 0 min 60 W/m 6,3 km/h (2 Bft) 95,74 %
04.10.2016 09:56 12,0 C 13,3 C 12,2 C 97 % 1 lf 1031,6 hPa 0,0 l/m 0 min 0 min 63 W/m 6,3 km/h (2 Bft) 93,62 %
04.10.2016 09:58 12,1 C 13,3 C 12,2 C 97 % 1 lf 1031,6 hPa 0,0 l/m 0 min 0 min 76 W/m 20,9 km/h (4 Bft) 97,87 %
04.10.2016 10:00 12,1 C 13,3 C 12,2 C 97 % 1 lf 1031,6 hPa 0,0 l/m 0 min 0 min 94 W/m 12,6 km/h (3 Bft) 95,74 %
04.10.2016 10:02 12,1 C 13,3 C 12,2 C 97 % 1 lf 1031,6 hPa 0,0 l/m 0 min 0 min 90 W/m 18,8 km/h (3 Bft) 97,83 %
04.10.2016 10:04 12,1 C 13,3 C 12,2 C 97 % 1 lf 1031,6 hPa 0,0 l/m 0 min 0 min 84 W/m 14,6 km/h (3 Bft) 100,00 %
04.10.2016 10:06 12,2 C 13,3 C 12,2 C 97 % 1 lf 1031,6 hPa 0,0 l/m 0 min 0 min 81 W/m 6,3 km/h (2 Bft) 95,74 %
04.10.2016 10:08 12,2 C 13,3 C 12,8 C 97 % 1 lf 1031,6 hPa 0,0 l/m 0 min 0 min 91 W/m 4,2 km/h (1 Bft) 93,62 %
04.10.2016 10:10 12,2 C 13,3 C 12,8 C 97 % 1 lf 1031,6 hPa 0,0 l/m 0 min 0 min 90 W/m 16,7 km/h (3 Bft) 100,00 %
04.10.2016 10:12 12,2 C 13,3 C 12,8 C 97 % 1 lf 1031,6 hPa 0,0 l/m 0 min 0 min 92 W/m 18,8 km/h (3 Bft) 100,00 %
04.10.2016 10:14 12,2 C 13,3 C 12,2 C 97 % 1 lf 1031,6 hPa 0,0 l/m 0 min 0 min 88 W/m 16,7 km/h (3 Bft) 97,83 %
04.10.2016 10:16 12,2 C 13,3 C 12,2 C 97 % 1 lf 1031,7 hPa 0,0 l/m 0 min 0 min 89 W/m 20,9 km/h (4 Bft) 97,87 %
04.10.2016 10:18 12,3 C 13,3 C 12,2 C 97 % 1 lf 1031,6 hPa 0,0 l/m 0 min 0 min 81 W/m 18,8 km/h (3 Bft) 97,87 %
04.10.2016 10:20 12,3 C 13,3 C 12,2 C 97 % 1 lf 1031,7 hPa 0,0 l/m 0 min 0 min 77 W/m 14,6 km/h (3 Bft) 100,00 %
04.10.2016 10:22 12,3 C 13,3 C 12,2 C 97 % 1 lf 1031,7 hPa 0,0 l/m 0 min 0 min 77 W/m 10,5 km/h (2 Bft) 97,87 %
04.10.2016 10:24 12,3 C 13,3 C 12,8 C 97 % 1 lf 1031,6 hPa 0,0 l/m 0 min 0 min 91 W/m 16,7 km/h (3 Bft) 95,74 %
04.10.2016 10:26 12,3 C 13,9 C 12,8 C 97 % 1 lf 1031,7 hPa 0,0 l/m 0 min 0 min 94 W/m 16,7 km/h (3 Bft) 95,74 %
04.10.2016 10:28 12,4 C 13,9 C 12,8 C 97 % 1 lf 1031,7 hPa 0,0 l/m 0 min 0 min 94 W/m 16,7 km/h (3 Bft) 93,48 %
04.10.2016 10:30 12,4 C 13,3 C 12,8 C 96 % 1 lf 1031,8 hPa 0,0 l/m 0 min 0 min 91 W/m 23,0 km/h (4 Bft) 93,62 %
04.10.2016 10:32 12,4 C 13,3 C 12,8 C 96 % 1 lf 1031,8 hPa 0,0 l/m 0 min 0 min 84 W/m 20,9 km/h (4 Bft) 97,87 %
04.10.2016 10:34 12,5 C 13,3 C 12,8 C 96 % 1 lf 1031,8 hPa 0,0 l/m 0 min 0 min 77 W/m 18,8 km/h (3 Bft) 97,87 %
04.10.2016 10:36 12,5 C 13,3 C 12,2 C 96 % 1 lf 1031,8 hPa 0,0 l/m 0 min 0 min 74 W/m 18,8 km/h (3 Bft) 93,62 %
04.10.2016 10:38 12,6 C 13,3 C 12,2 C 96 % 1 lf 1031,8 hPa 0,0 l/m 0 min 0 min 70 W/m 18,8 km/h (3 Bft) 97,83 %
04.10.2016 10:40 12,6 C 13,9 C 12,8 C 96 % 1 lf 1031,8 hPa 0,0 l/m 0 min 0 min 82 W/m 12,6 km/h (3 Bft) 97,87 %
04.10.2016 10:42 12,6 C 13,9 C 12,8 C 96 % 1 lf 1031,8 hPa 0,0 l/m 0 min 0 min 98 W/m 20,9 km/h (4 Bft) 95,74 %
04.10.2016 10:44 12,7 C 13,9 C 12,8 C 95 % 1 lf 1031,8 hPa 0,0 l/m 0 min 0 min 98 W/m 16,7 km/h (3 Bft) 97,87 %
04.10.2016 10:46 12,7 C 13,9 C 12,8 C 95 % 1 lf 1031,8 hPa 0,0 l/m 0 min 0 min 99 W/m 18,8 km/h (3 Bft) 93,62 %
04.10.2016 10:48 12,7 C 13,9 C 12,8 C 95 % 1 lf 1031,8 hPa 0,0 l/m 0 min 0 min 95 W/m 16,7 km/h (3 Bft) 95,74 %
04.10.2016 10:50 12,7 C 13,9 C 12,8 C 95 % 1 lf 1031,8 hPa 0,0 l/m 0 min 0 min 91 W/m 20,9 km/h (4 Bft) 95,65 %
04.10.2016 10:52 12,7 C 13,9 C 12,8 C 95 % 0 lf 1031,8 hPa 0,0 l/m 0 min 0 min 84 W/m 14,6 km/h (3 Bft) 93,62 %
04.10.2016 10:54 12,8 C 13,9 C 12,8 C 95 % 0 lf 1031,9 hPa 0,0 l/m 0 min 0 min 78 W/m 27,2 km/h (4 Bft) 95,74 %
04.10.2016 10:56 12,8 C 13,9 C 12,8 C 94 % 1 lf 1031,9 hPa 0,0 l/m 0 min 0 min 92 W/m 18,8 km/h (3 Bft) 95,74 %
04.10.2016 10:58 12,8 C 13,9 C 12,8 C 94 % 1 lf 1031,9 hPa 0,0 l/m 0 min 0 min 108 W/m 20,9 km/h (4 Bft) 93,62 %
04.10.2016 11:00 12,8 C 13,9 C 12,8 C 94 % 0 lf 1031,9 hPa 0,0 l/m 0 min 0 min 119 W/m 16,7 km/h (3 Bft) 93,62 %
04.10.2016 11:02 12,9 C 13,9 C 12,8 C 94 % 0 lf 1031,9 hPa 0,0 l/m 0 min 0 min 126 W/m 23,0 km/h (4 Bft) 95,65 %
04.10.2016 11:04 12,9 C 13,9 C 13,3 C 94 % 0 lf 1031,9 hPa 0,0 l/m 0 min 0 min 127 W/m 18,8 km/h (3 Bft) 95,74 %
04.10.2016 11:06 12,9 C 14,4 C 13,3 C 94 % 0 lf 1032,0 hPa 0,0 l/m 0 min 0 min 138 W/m 23,0 km/h (4 Bft) 95,74 %
04.10.2016 11:08 13,0 C 14,4 C 13,3 C 94 % 0 lf 1031,9 hPa 0,0 l/m 0 min 0 min 140 W/m 18,8 km/h (3 Bft) 93,62 %
04.10.2016 11:10 13,0 C 14,4 C 13,3 C 93 % 0 lf 1031,9 hPa 0,0 l/m 0 min 0 min 139 W/m 20,9 km/h (4 Bft) 95,74 %
04.10.2016 11:12 13,0 C 14,4 C 13,3 C 93 % 0 lf 1031,9 hPa 0,0 l/m 0 min 0 min 126 W/m 10,5 km/h (2 Bft) 95,65 %
04.10.2016 11:14 13,1 C 14,4 C 13,3 C 93 % 0 lf 1031,9 hPa 0,0 l/m 0 min 0 min 138 W/m 23,0 km/h (4 Bft) 95,74 %
04.10.2016 11:16 13,1 C 15,0 C 13,3 C 93 % 0 lf 1032,0 hPa 0,0 l/m 0 min 0 min 191 W/m 10,5 km/h (2 Bft) 93,62 %
04.10.2016 11:18 13,2 C 15,0 C 13,9 C 93 % 0 lf 1031,9 hPa 0,0 l/m 0 min 0 min 201 W/m 16,7 km/h (3 Bft) 95,74 %
04.10.2016 11:20 13,2 C 15,6 C 13,9 C 92 % 0 lf 1032,0 hPa 0,0 l/m 0 min 0 min 205 W/m 12,6 km/h (3 Bft) 93,62 %
04.10.2016 11:22 13,3 C 15,6 C 14,4 C 92 % 0 lf 1032,0 hPa 0,0 l/m 0 min 0 min 232 W/m 20,9 km/h (4 Bft) 97,87 %
04.10.2016 11:24 13,3 C 15,0 C 14,4 C 92 % 0 lf 1031,9 hPa 0,0 l/m 0 min 0 min 220 W/m 14,6 km/h (3 Bft) 97,83 %
04.10.2016 11:26 13,3 C 15,6 C 14,4 C 92 % 0 lf 1031,9 hPa 0,0 l/m 0 min 0 min 227 W/m 14,6 km/h (3 Bft) 100,00 %
04.10.2016 11:28 13,4 C 15,6 C 15,0 C 92 % 0 lf 1032,0 hPa 0,0 l/m 0 min 0 min 227 W/m 16,7 km/h (3 Bft) 100,00 %
04.10.2016 11:30 13,4 C 15,6 C 15,0 C 91 % 0 lf 1032,0 hPa 0,0 l/m 0 min 0 min 222 W/m 18,8 km/h (3 Bft) 97,87 %
04.10.2016 11:32 13,5 C 16,1 C 14,4 C 91 % 0 lf 1032,0 hPa 0,0 l/m 0 min 0 min 221 W/m 18,8 km/h (3 Bft) 100,00 %
04.10.2016 11:34 13,6 C 16,1 C 14,4 C 91 % 0 lf 1031,9 hPa 0,0 l/m 0 min 0 min 235 W/m 27,2 km/h (4 Bft) 100,00 %
04.10.2016 11:36 13,6 C 16,1 C 14,4 C 91 % 0 lf 1032,0 hPa 0,0 l/m 0 min 0 min 241 W/m 27,2 km/h (4 Bft) 95,74 %
04.10.2016 11:38 13,7 C 16,7 C 15,0 C 90 % 0 lf 1032,0 hPa 0,0 l/m 2 min 0 min 254 W/m 12,6 km/h (3 Bft) 97,78 %
04.10.2016 11:40 13,8 C 18,3 C 15,0 C 90 % 0 lf 1032,0 hPa 0,0 l/m 2 min 0 min 279 W/m 12,6 km/h (3 Bft) 95,74 %
04.10.2016 11:42 13,8 C 20,0 C 16,1 C 90 % 0 lf 1032,0 hPa 0,0 l/m 2 min 0 min 408 W/m 14,6 km/h (3 Bft) 95,74 %
04.10.2016 11:44 13,9 C 19,4 C 16,7 C 90 % 0 lf 1031,9 hPa 0,0 l/m 2 min 0 min 615 W/m 20,9 km/h (4 Bft) 97,87 %
04.10.2016 11:46 14,1 C 17,8 C 16,1 C 89 % 0 lf 1032,0 hPa 0,0 l/m 2 min 0 min 382 W/m 39,7 km/h (6 Bft) 97,87 %
04.10.2016 11:48 14,2 C 16,7 C 15,6 C 88 % 0 lf 1031,9 hPa 0,0 l/m 2 min 0 min 279 W/m 25,1 km/h (4 Bft) 93,48 %
04.10.2016 11:50 14,2 C 16,7 C 16,1 C 88 % 0 lf 1031,9 hPa 0,0 l/m 2 min 0 min 280 W/m 20,9 km/h (4 Bft) 95,74 %
04.10.2016 11:52 14,2 C 17,2 C 16,1 C 87 % 0 lf 1031,9 hPa 0,0 l/m 2 min 0 min 316 W/m 16,7 km/h (3 Bft) 97,87 %
04.10.2016 11:54 14,3 C 17,2 C 16,1 C 87 % 0 lf 1031,9 hPa 0,0 l/m 2 min 0 min 286 W/m 20,9 km/h (4 Bft) 97,87 %
04.10.2016 11:56 14,4 C 17,8 C 16,7 C 87 % 0 lf 1032,0 hPa 0,0 l/m 0 min 0 min 253 W/m 18,8 km/h (3 Bft) 97,87 %
04.10.2016 11:58 14,6 C 17,2 C 16,1 C 86 % 0 lf 1031,9 hPa 0,0 l/m 0 min 0 min 237 W/m 20,9 km/h (4 Bft) 95,74 %
04.10.2016 12:00 14,6 C 16,7 C 15,6 C 86 % 0 lf 1031,9 hPa 0,0 l/m 2 min 0 min 258 W/m 20,9 km/h (4 Bft) 97,83 %
04.10.2016 12:02 14,7 C 16,7 C 15,6 C 86 % 0 lf 1031,9 hPa 0,0 l/m 0 min 0 min 232 W/m 20,9 km/h (4 Bft) 97,87 %
04.10.2016 12:04 14,7 C 16,1 C 15,0 C 85 % 0 lf 1031,9 hPa 0,0 l/m 0 min 0 min 223 W/m 16,7 km/h (3 Bft) 93,62 %
04.10.2016 12:06 14,7 C 16,7 C 15,0 C 85 % 0 lf 1031,9 hPa 0,0 l/m 0 min 0 min 217 W/m 23,0 km/h (4 Bft) 91,49 %
04.10.2016 12:08 14,8 C 16,1 C 15,0 C 85 % 0 lf 1031,9 hPa 0,0 l/m 0 min 0 min 230 W/m 25,1 km/h (4 Bft) 91,49 %
04.10.2016 12:10 14,8 C 17,8 C 15,6 C 84 % 0 lf 1031,9 hPa 0,0 l/m 0 min 0 min 230 W/m 16,7 km/h (3 Bft) 93,62 %
04.10.2016 12:12 14,8 C 17,8 C 15,6 C 84 % 0 lf 1031,9 hPa 0,0 l/m 0 min 0 min 260 W/m 18,8 km/h (3 Bft) 95,65 %
04.10.2016 12:14 14,9 C 18,3 C 15,6 C 84 % 0 lf 1031,8 hPa 0,0 l/m 2 min 0 min 310 W/m 12,6 km/h (3 Bft) 95,74 %
04.10.2016 12:16 14,9 C 18,9 C 15,6 C 84 % 0 lf 1031,8 hPa 0,0 l/m 2 min 0 min 347 W/m 12,6 km/h (3 Bft) 91,49 %
04.10.2016 12:18 14,9 C 18,9 C 15,6 C 84 % 0 lf 1031,9 hPa 0,0 l/m 2 min 0 min 350 W/m 23,0 km/h (4 Bft) 93,62 %
04.10.2016 12:20 15,0 C 21,7 C 16,1 C 84 % 0 lf 1031,9 hPa 0,0 l/m 2 min 0 min 542 W/m 20,9 km/h (4 Bft) 93,62 %
04.10.2016 12:22 15,1 C 20,6 C 16,7 C 84 % 0 lf 1031,9 hPa 0,0 l/m 2 min 0 min 628 W/m 33,5 km/h (5 Bft) 93,62 %
04.10.2016 12:24 15,2 C 18,9 C 16,7 C 83 % 0 lf 1031,9 hPa 0,0 l/m 2 min 0 min 612 W/m 23,0 km/h (4 Bft) 95,65 %
04.10.2016 12:26 15,2 C 17,8 C 16,1 C 82 % 0 lf 1031,9 hPa 0,0 l/m 0 min 0 min 263 W/m 27,2 km/h (4 Bft) 93,62 %
04.10.2016 12:28 15,3 C 17,8 C 16,1 C 82 % 0 lf 1031,9 hPa 0,0 l/m 2 min 0 min 310 W/m 16,7 km/h (3 Bft) 97,87 %
04.10.2016 12:30 15,3 C 18,9 C 16,1 C 82 % 0 lf 1031,9 hPa 0,0 l/m 2 min 0 min 369 W/m 20,9 km/h (4 Bft) 95,74 %
04.10.2016 12:32 15,4 C 19,4 C 16,7 C 82 % 0 lf 1031,9 hPa 0,0 l/m 2 min 0 min 373 W/m 23,0 km/h (4 Bft) 95,74 %
04.10.2016 12:34 15,5 C 18,9 C 16,7 C 82 % 0 lf 1031,9 hPa 0,0 l/m 2 min 0 min 354 W/m 20,9 km/h (4 Bft) 97,83 %
04.10.2016 12:36 15,6 C 18,3 C 16,7 C 82 % 0 lf 1031,9 hPa 0,0 l/m 2 min 0 min 285 W/m 27,2 km/h (4 Bft) 97,87 %
04.10.2016 12:38 15,6 C 18,9 C 16,1 C 81 % 0 lf 1032,0 hPa 0,0 l/m 0 min 0 min 246 W/m 31,4 km/h (5 Bft) 97,87 %
04.10.2016 12:40 15,6 C 18,3 C 16,1 C 81 % 0 lf 1032,0 hPa 0,0 l/m 0 min 0 min 233 W/m 25,1 km/h (4 Bft) 95,74 %
04.10.2016 12:42 15,6 C 17,8 C 16,1 C 81 % 0 lf 1032,0 hPa 0,0 l/m 0 min 0 min 230 W/m 25,1 km/h (4 Bft) 97,87 %
04.10.2016 12:44 15,6 C 17,2 C 15,6 C 81 % 0 lf 1032,0 hPa 0,0 l/m 0 min 0 min 234 W/m 27,2 km/h (4 Bft) 95,74 %
04.10.2016 12:46 15,6 C 17,2 C 15,6 C 80 % 0 lf 1032,0 hPa 0,0 l/m 0 min 0 min 250 W/m 23,0 km/h (4 Bft) 95,65 %
04.10.2016 12:48 15,6 C 17,8 C 15,6 C 80 % 0 lf 1031,9 hPa 0,0 l/m 2 min 0 min 276 W/m 18,8 km/h (3 Bft) 97,87 %
04.10.2016 12:50 15,6 C 20,0 C 16,1 C 80 % 0 lf 1031,9 hPa 0,0 l/m 2 min 0 min 276 W/m 25,1 km/h (4 Bft) 95,74 %
04.10.2016 12:52 15,7 C 21,1 C 16,7 C 81 % 0 lf 1032,0 hPa 0,0 l/m 2 min 0 min 704 W/m 23,0 km/h (4 Bft) 97,87 %
04.10.2016 12:54 15,8 C 21,7 C 16,7 C 81 % 0 lf 1032,0 hPa 0,0 l/m 2 min 0 min 445 W/m 27,2 km/h (4 Bft) 97,87 %
04.10.2016 12:56 15,9 C 23,3 C 16,7 C 80 % 0 lf 1032,0 hPa 0,0 l/m 2 min 0 min 672 W/m 29,3 km/h (5 Bft) 93,62 %
04.10.2016 12:58 15,9 C 22,2 C 16,7 C 80 % 0 lf 1032,0 hPa 0,0 l/m 2 min 0 min 772 W/m 31,4 km/h (5 Bft) 89,36 %
04.10.2016 13:00 16,0 C 19,4 C 16,1 C 79 % 0 lf 1032,0 hPa 0,0 l/m 2 min 0 min 296 W/m 31,4 km/h (5 Bft) 97,83 %
04.10.2016 13:02 16,1 C 17,8 C 15,6 C 78 % 0 lf 1032,0 hPa 0,0 l/m 2 min 0 min 522 W/m 31,4 km/h (5 Bft) 97,87 %
04.10.2016 13:04 16,1 C 17,8 C 15,6 C 78 % 0 lf 1032,0 hPa 0,0 l/m 0 min 0 min 217 W/m 27,2 km/h (4 Bft) 97,87 %
04.10.2016 13:06 16,1 C 17,8 C 15,0 C 78 % 0 lf 1032,0 hPa 0,0 l/m 0 min 0 min 234 W/m 27,2 km/h (4 Bft) 93,62 %
04.10.2016 13:08 16,0 C 18,3 C 15,0 C 77 % 0 lf 1032,0 hPa 0,0 l/m 0 min 0 min 230 W/m 23,0 km/h (4 Bft) 95,74 %
04.10.2016 13:10 16,0 C 18,9 C 15,0 C 78 % 0 lf 1032,0 hPa 0,0 l/m 0 min 0 min 243 W/m 16,7 km/h (3 Bft) 95,65 %
04.10.2016 13:12 16,0 C 17,8 C 15,0 C 78 % 0 lf 1032,0 hPa 0,0 l/m 0 min 0 min 225 W/m 27,2 km/h (4 Bft) 97,87 %
04.10.2016 13:14 15,9 C 18,3 C 15,0 C 77 % 0 lf 1032,0 hPa 0,0 l/m 0 min 0 min 258 W/m 27,2 km/h (4 Bft) 93,62 %
04.10.2016 13:16 15,9 C 20,6 C 15,6 C 77 % 0 lf 1032,0 hPa 0,0 l/m 2 min 0 min 431 W/m 27,2 km/h (4 Bft) 95,74 %
04.10.2016 13:18 16,0 C 22,2 C 16,1 C 77 % 0 lf 1032,0 hPa 0,0 l/m 2 min 0 min 606 W/m 18,8 km/h (3 Bft) 97,87 %
04.10.2016 13:20 16,1 C 22,2 C 16,7 C 77 % 0 lf 1032,0 hPa 0,0 l/m 2 min 0 min 428 W/m 25,1 km/h (4 Bft) 97,87 %
04.10.2016 13:22 16,2 C 21,7 C 17,2 C 77 % 0 lf 1032,0 hPa 0,0 l/m 2 min 0 min 348 W/m 29,3 km/h (5 Bft) 97,83 %
04.10.2016 13:24 16,3 C 19,4 C 17,2 C 77 % 0 lf 1032,0 hPa 0,0 l/m 0 min 0 min 277 W/m 27,2 km/h (4 Bft) 100,00 %
04.10.2016 13:26 16,3 C 18,9 C 16,7 C 76 % 0 lf 1032,0 hPa 0,0 l/m 0 min 0 min 273 W/m 29,3 km/h (5 Bft) 97,87 %
04.10.2016 13:28 16,4 C 18,9 C 16,7 C 76 % 0 lf 1032,0 hPa 0,0 l/m 0 min 0 min 274 W/m 20,9 km/h (4 Bft) 93,62 %
04.10.2016 13:30 16,4 C 18,3 C 16,7 C 76 % 0 lf 1032,0 hPa 0,0 l/m 2 min 0 min 321 W/m 27,2 km/h (4 Bft) 100,00 %
04.10.2016 13:32 16,4 C 17,8 C 16,7 C 75 % 0 lf 1032,0 hPa 0,0 l/m 2 min 0 min 316 W/m 23,0 km/h (4 Bft) 97,87 %
04.10.2016 13:34 16,4 C 17,8 C 16,7 C 74 % 0 lf 1032,0 hPa 0,0 l/m 2 min 0 min 285 W/m 27,2 km/h (4 Bft) 97,83 %
04.10.2016 13:36 16,4 C 17,2 C 16,7 C 74 % 0 lf 1032,0 hPa 0,0 l/m 0 min 0 min 256 W/m 35,6 km/h (5 Bft) 97,87 %
04.10.2016 13:38 16,4 C 17,8 C 16,7 C 74 % 0 lf 1032,0 hPa 0,0 l/m 0 min 0 min 256 W/m 29,3 km/h (5 Bft) 100,00 %
04.10.2016 13:40 16,4 C 17,2 C 16,1 C 74 % 0 lf 1031,9 hPa 0,0 l/m 0 min 0 min 246 W/m 31,4 km/h (5 Bft) 100,00 %
04.10.2016 13:42 16,3 C 17,2 C 16,1 C 74 % 0 lf 1032,0 hPa 0,0 l/m 0 min 0 min 246 W/m 29,3 km/h (5 Bft) 97,87 %
04.10.2016 13:44 16,3 C 17,8 C 15,6 C 74 % 0 lf 1031,9 hPa 0,0 l/m 0 min 0 min 266 W/m 25,1 km/h (4 Bft) 97,87 %
04.10.2016 13:46 16,3 C 18,3 C 15,6 C 75 % 0 lf 1031,9 hPa 0,0 l/m 0 min 0 min 242 W/m 27,2 km/h (4 Bft) 95,65 %
04.10.2016 13:48 16,3 C 18,3 C 15,6 C 75 % 0 lf 1031,9 hPa 0,0 l/m 0 min 0 min 260 W/m 25,1 km/h (4 Bft) 97,87 %
04.10.2016 13:50 16,3 C 18,9 C 15,6 C 75 % 0 lf 1031,8 hPa 0,0 l/m 2 min 0 min 327 W/m 29,3 km/h (5 Bft) 93,62 %
04.10.2016 13:52 16,2 C 18,9 C 16,1 C 74 % 0 lf 1031,9 hPa 0,0 l/m 2 min 0 min 295 W/m 35,6 km/h (5 Bft) 93,62 %
04.10.2016 13:54 16,3 C 19,4 C 16,1 C 74 % 0 lf 1031,9 hPa 0,0 l/m 2 min 0 min 323 W/m 23,0 km/h (4 Bft) 97,87 %
04.10.2016 13:56 16,3 C 18,9 C 16,1 C 75 % 0 lf 1031,9 hPa 0,0 l/m 2 min 0 min 283 W/m 20,9 km/h (4 Bft) 97,83 %
04.10.2016 13:58 16,3 C 18,3 C 16,1 C 74 % 0 lf 1031,9 hPa 0,0 l/m 2 min 0 min 276 W/m 23,0 km/h (4 Bft) 95,74 %
04.10.2016 14:00 16,3 C 20,6 C 16,1 C 75 % 0 lf 1031,8 hPa 0,0 l/m 2 min 0 min 297 W/m 20,9 km/h (4 Bft) 97,87 %
04.10.2016 14:02 16,4 C 20,6 C 16,1 C 75 % 0 lf 1031,9 hPa 0,0 l/m 0 min 0 min 252 W/m 20,9 km/h (4 Bft) 95,74 %
04.10.2016 14:04 16,4 C 19,4 C 16,1 C 75 % 0 lf 1031,8 hPa 0,0 l/m 0 min 0 min 214 W/m 12,6 km/h (3 Bft) 93,62 %
04.10.2016 14:06 16,5 C 20,6 C 16,1 C 75 % 0 lf 1031,8 hPa 0,0 l/m 0 min 0 min 216 W/m 14,6 km/h (3 Bft) 95,74 %
04.10.2016 14:08 16,6 C 22,2 C 16,1 C 75 % 0 lf 1031,7 hPa 0,0 l/m 2 min 0 min 381 W/m 16,7 km/h (3 Bft) 95,65 %
04.10.2016 14:10 16,6 C 23,9 C 16,7 C 74 % 0 lf 1031,7 hPa 0,0 l/m 2 min 0 min 684 W/m 20,9 km/h (4 Bft) 95,74 %
04.10.2016 14:12 16,7 C 26,1 C 17,2 C 74 % 0 lf 1031,7 hPa 0,0 l/m 2 min 0 min 749 W/m 16,7 km/h (3 Bft) 91,49 %
04.10.2016 14:14 16,9 C 23,9 C 17,8 C 73 % 0 lf 1031,7 hPa 0,0 l/m 2 min 0 min 757 W/m 27,2 km/h (4 Bft) 97,87 %
04.10.2016 14:16 17,0 C 22,2 C 17,8 C 72 % 0 lf 1031,7 hPa 0,0 l/m 2 min 0 min 501 W/m 23,0 km/h (4 Bft) 95,74 %
04.10.2016 14:18 17,2 C 22,8 C 17,8 C 72 % 0 lf 1031,7 hPa 0,0 l/m 2 min 0 min 287 W/m 18,8 km/h (3 Bft) 97,87 %
04.10.2016 14:20 17,3 C 22,2 C 17,2 C 72 % 0 lf 1031,7 hPa 0,0 l/m 2 min 0 min 310 W/m 25,1 km/h (4 Bft) 97,83 %
04.10.2016 14:22 17,3 C 21,1 C 17,2 C 72 % 0 lf 1031,8 hPa 0,0 l/m 0 min 0 min 249 W/m 18,8 km/h (3 Bft) 97,87 %
04.10.2016 14:24 17,4 C 20,0 C 16,7 C 72 % 0 lf 1031,7 hPa 0,0 l/m 0 min 0 min 168 W/m 14,6 km/h (3 Bft) 97,87 %
04.10.2016 14:26 17,4 C 18,9 C 16,7 C 72 % 0 lf 1031,7 hPa 0,0 l/m 0 min 0 min 162 W/m 16,7 km/h (3 Bft) 95,74 %
04.10.2016 14:28 17,4 C 18,3 C 16,7 C 71 % 0 lf 1031,8 hPa 0,0 l/m 0 min 0 min 177 W/m 23,0 km/h (4 Bft) 95,74 %
04.10.2016 14:30 17,4 C 18,3 C 16,7 C 71 % 0 lf 1031,9 hPa 0,0 l/m 0 min 0 min 211 W/m 23,0 km/h (4 Bft) 97,87 %
04.10.2016 14:32 17,3 C 18,9 C 16,7 C 70 % 0 lf 1031,9 hPa 0,0 l/m 2 min 0 min 268 W/m 23,0 km/h (4 Bft) 100,00 %
04.10.2016 14:34 17,3 C 18,9 C 17,2 C 70 % 0 lf 1031,7 hPa 0,0 l/m 2 min 0 min 302 W/m 20,9 km/h (4 Bft) 97,87 %
04.10.2016 14:36 17,2 C 19,4 C 17,2 C 70 % 0 lf 1031,7 hPa 0,0 l/m 2 min 0 min 277 W/m 18,8 km/h (3 Bft) 100,00 %
04.10.2016 14:38 17,2 C 19,4 C 17,2 C 70 % 0 lf 1031,9 hPa 0,0 l/m 2 min 0 min 309 W/m 25,1 km/h (4 Bft) 95,74 %
04.10.2016 14:40 17,2 C 19,4 C 17,2 C 69 % 0 lf 1031,7 hPa 0,0 l/m 2 min 0 min 275 W/m 20,9 km/h (4 Bft) 100,00 %
04.10.2016 14:42 17,2 C 21,7 C 16,7 C 69 % 0 lf 1031,7 hPa 0,0 l/m 2 min 0 min 355 W/m 16,7 km/h (3 Bft) 100,00 %
04.10.2016 14:44 17,2 C 23,9 C 16,7 C 70 % 0 lf 1031,7 hPa 0,0 l/m 2 min 0 min 580 W/m 20,9 km/h (4 Bft) 97,83 %
04.10.2016 14:46 17,2 C 22,8 C 16,1 C 69 % 0 lf 1031,7 hPa 0,0 l/m 2 min 0 min 584 W/m 25,1 km/h (4 Bft) 100,00 %
04.10.2016 14:48 17,2 C 22,8 C 16,1 C 68 % 0 lf 1031,7 hPa 0,0 l/m 2 min 0 min 542 W/m 27,2 km/h (4 Bft) 93,62 %
04.10.2016 14:50 17,3 C 20,6 C 16,1 C 68 % 0 lf 1031,7 hPa 0,0 l/m 2 min 0 min 524 W/m 31,4 km/h (5 Bft) 95,74 %
04.10.2016 14:52 17,3 C 21,1 C 16,1 C 68 % 0 lf 1031,7 hPa 0,0 l/m 2 min 0 min 330 W/m 33,5 km/h (5 Bft) 93,62 %
04.10.2016 14:54 17,3 C 22,2 C 16,1 C 67 % 0 lf 1031,7 hPa 0,0 l/m 2 min 0 min 545 W/m 29,3 km/h (5 Bft) 93,62 %
04.10.2016 14:56 17,3 C 22,8 C 16,1 C 67 % 0 lf 1031,6 hPa 0,0 l/m 2 min 0 min 512 W/m 29,3 km/h (5 Bft) 93,48 %
04.10.2016 14:58 17,4 C 22,8 C 16,1 C 67 % 0 lf 1031,6 hPa 0,0 l/m 2 min 0 min 521 W/m 29,3 km/h (5 Bft) 93,62 %
04.10.2016 15:00 17,4 C 22,8 C 16,1 C 66 % 0 lf 1031,6 hPa 0,0 l/m 2 min 0 min 520 W/m 20,9 km/h (4 Bft) 95,74 %
04.10.2016 15:02 17,5 C 23,3 C 16,1 C 67 % 0 lf 1031,6 hPa 0,0 l/m 2 min 0 min 509 W/m 25,1 km/h (4 Bft) 93,62 %
04.10.2016 15:04 17,6 C 22,2 C 16,1 C 67 % 0 lf 1031,5 hPa 0,0 l/m 2 min 0 min 500 W/m 20,9 km/h (4 Bft) 93,62 %
04.10.2016 15:06 17,7 C 23,9 C 16,1 C 68 % 0 lf 1031,5 hPa 0,0 l/m 2 min 0 min 497 W/m 14,6 km/h (3 Bft) 95,74 %
04.10.2016 15:08 17,7 C 25,0 C 16,1 C 67 % 0 lf 1031,5 hPa 0,0 l/m 2 min 0 min 504 W/m 23,0 km/h (4 Bft) 95,65 %
04.10.2016 15:10 17,8 C 25,6 C 16,1 C 67 % 0 lf 1031,5 hPa 0,0 l/m 2 min 0 min 511 W/m 25,1 km/h (4 Bft) 91,49 %
04.10.2016 15:12 17,9 C 25,0 C 16,1 C 67 % 0 lf 1031,5 hPa 0,0 l/m 2 min 0 min 527 W/m 23,0 km/h (4 Bft) 93,62 %
04.10.2016 15:14 17,9 C 26,1 C 16,7 C 67 % 0 lf 1031,4 hPa 0,0 l/m 2 min 0 min 540 W/m 23,0 km/h (4 Bft) 93,62 %
04.10.2016 15:16 18,0 C 25,0 C 16,1 C 65 % 0 lf 1031,4 hPa 0,0 l/m 2 min 0 min 577 W/m 27,2 km/h (4 Bft) 93,62 %
04.10.2016 15:18 18,0 C 25,0 C 16,1 C 66 % 0 lf 1031,4 hPa 0,0 l/m 2 min 0 min 558 W/m 23,0 km/h (4 Bft) 93,48 %
04.10.2016 15:20 18,1 C 23,3 C 16,1 C 65 % 0 lf 1031,5 hPa 0,0 l/m 2 min 0 min 545 W/m 23,0 km/h (4 Bft) 95,74 %
04.10.2016 15:22 18,1 C 23,3 C 16,1 C 65 % 0 lf 1031,4 hPa 0,0 l/m 2 min 0 min 538 W/m 29,3 km/h (5 Bft) 93,62 %
04.10.2016 15:24 18,1 C 23,3 C 16,7 C 65 % 0 lf 1031,5 hPa 0,0 l/m 2 min 0 min 522 W/m 18,8 km/h (3 Bft) 91,49 %
04.10.2016 15:26 18,2 C 22,8 C 16,7 C 65 % 0 lf 1031,5 hPa 0,0 l/m 2 min 0 min 539 W/m 33,5 km/h (5 Bft) 91,49 %
04.10.2016 15:28 18,2 C 22,2 C 16,7 C 64 % 0 lf 1031,5 hPa 0,0 l/m 2 min 0 min 467 W/m 29,3 km/h (5 Bft) 91,49 %
04.10.2016 15:30 18,1 C 20,0 C 16,1 C 62 % 0 lf 1031,5 hPa 0,0 l/m 0 min 0 min 140 W/m 25,1 km/h (4 Bft) 93,48 %
04.10.2016 15:32 18,1 C 19,4 C 16,1 C 61 % 0 lf 1031,4 hPa 0,0 l/m 0 min 0 min 125 W/m 37,7 km/h (5 Bft) 93,62 %
04.10.2016 15:34 18,0 C 18,3 C 15,6 C 61 % 0 lf 1031,4 hPa 0,0 l/m 0 min 0 min 121 W/m 29,3 km/h (5 Bft) 95,74 %
04.10.2016 15:36 17,9 C 17,8 C 15,0 C 62 % 0 lf 1031,4 hPa 0,0 l/m 0 min 0 min 87 W/m 33,5 km/h (5 Bft) 95,74 %
04.10.2016 15:38 17,7 C 18,9 C 15,0 C 62 % 0 lf 1031,4 hPa 0,0 l/m 0 min 0 min 136 W/m 25,1 km/h (4 Bft) 95,74 %
04.10.2016 15:40 17,7 C 20,6 C 15,6 C 62 % 0 lf 1031,4 hPa 0,0 l/m 2 min 0 min 462 W/m 20,9 km/h (4 Bft) 93,62 %
04.10.2016 15:42 17,6 C 22,8 C 15,6 C 63 % 0 lf 1031,3 hPa 0,0 l/m 2 min 0 min 458 W/m 23,0 km/h (4 Bft) 95,65 %
04.10.2016 15:44 17,6 C 24,4 C 15,6 C 63 % 0 lf 1031,4 hPa 0,0 l/m 2 min 0 min 455 W/m 25,1 km/h (4 Bft) 93,62 %
04.10.2016 15:46 17,6 C 24,4 C 16,1 C 63 % 0 lf 1031,3 hPa 0,0 l/m 2 min 0 min 452 W/m 18,8 km/h (3 Bft) 93,62 %
04.10.2016 15:48 17,6 C 24,4 C 16,1 C 63 % 0 lf 1031,3 hPa 0,0 l/m 2 min 0 min 455 W/m 27,2 km/h (4 Bft) 97,87 %
04.10.2016 15:50 17,7 C 24,4 C 16,1 C 64 % 0 lf 1031,3 hPa 0,0 l/m 2 min 0 min 455 W/m 31,4 km/h (5 Bft) 100,00 %
04.10.2016 15:52 17,7 C 24,4 C 16,7 C 64 % 0 lf 1031,3 hPa 0,0 l/m 2 min 0 min 466 W/m 23,0 km/h (4 Bft) 100,00 %
04.10.2016 15:54 17,8 C 22,8 C 16,7 C 63 % 0 lf 1031,3 hPa 0,0 l/m 2 min 0 min 487 W/m 35,6 km/h (5 Bft) 100,00 %
04.10.2016 15:56 17,8 C 22,2 C 16,7 C 63 % 0 lf 1031,3 hPa 0,0 l/m 2 min 0 min 499 W/m 33,5 km/h (5 Bft) 100,00 %
04.10.2016 15:58 17,9 C 23,3 C 17,2 C 63 % 0 lf 1031,3 hPa 0,0 l/m 2 min 0 min 502 W/m 29,3 km/h (5 Bft) 97,87 %
04.10.2016 16:00 17,9 C 23,9 C 16,7 C 63 % 0 lf 1031,4 hPa 0,0 l/m 2 min 0 min 496 W/m 29,3 km/h (5 Bft) 100,00 %
04.10.2016 16:02 18,0 C 23,9 C 16,7 C 63 % 0 lf 1031,4 hPa 0,0 l/m 2 min 0 min 488 W/m 35,6 km/h (5 Bft) 100,00 %
04.10.2016 16:04 18,1 C 22,8 C 16,7 C 62 % 0 lf 1031,3 hPa 0,0 l/m 2 min 0 min 401 W/m 27,2 km/h (4 Bft) 100,00 %
04.10.2016 16:06 18,0 C 21,7 C 16,1 C 62 % 0 lf 1031,4 hPa 0,0 l/m 0 min 0 min 174 W/m 39,7 km/h (6 Bft) 100,00 %
04.10.2016 16:08 18,0 C 22,2 C 16,1 C 62 % 0 lf 1031,4 hPa 0,0 l/m 2 min 0 min 440 W/m 29,3 km/h (5 Bft) 100,00 %
04.10.2016 16:10 17,9 C 21,1 C 16,1 C 61 % 0 lf 1031,4 hPa 0,0 l/m 2 min 0 min 461 W/m 29,3 km/h (5 Bft) 100,00 %
04.10.2016 16:12 17,9 C 21,7 C 16,1 C 62 % 0 lf 1031,4 hPa 0,0 l/m 2 min 0 min 434 W/m 31,4 km/h (5 Bft) 100,00 %
04.10.2016 16:14 17,9 C 21,1 C 16,1 C 62 % 0 lf 1031,4 hPa 0,0 l/m 0 min 0 min 155 W/m 23,0 km/h (4 Bft) 100,00 %
04.10.2016 16:16 17,8 C 21,7 C 16,1 C 62 % 0 lf 1031,4 hPa 0,0 l/m 2 min 0 min 341 W/m 29,3 km/h (5 Bft) 95,74 %
04.10.2016 16:18 17,8 C 22,2 C 15,6 C 62 % 0 lf 1031,4 hPa 0,0 l/m 2 min 0 min 398 W/m 25,1 km/h (4 Bft) 97,83 %
04.10.2016 16:20 17,8 C 20,0 C 15,6 C 62 % 0 lf 1031,4 hPa 0,0 l/m 2 min 0 min 396 W/m 29,3 km/h (5 Bft) 100,00 %
04.10.2016 16:22 17,7 C 20,0 C 15,6 C 61 % 0 lf 1031,4 hPa 0,0 l/m 2 min 0 min 396 W/m 25,1 km/h (4 Bft) 97,87 %
04.10.2016 16:24 17,7 C 21,7 C 15,6 C 62 % 0 lf 1031,4 hPa 0,0 l/m 2 min 0 min 369 W/m 23,0 km/h (4 Bft) 100,00 %
04.10.2016 16:26 17,7 C 22,8 C 15,6 C 62 % 0 lf 1031,3 hPa 0,0 l/m 2 min 0 min 356 W/m 20,9 km/h (4 Bft) 97,87 %
04.10.2016 16:28 17,7 C 22,8 C 15,6 C 62 % 0 lf 1031,3 hPa 0,0 l/m 2 min 0 min 351 W/m 23,0 km/h (4 Bft) 100,00 %
04.10.2016 16:30 17,7 C 23,3 C 15,6 C 62 % 0 lf 1031,3 hPa 0,0 l/m 2 min 0 min 346 W/m 23,0 km/h (4 Bft) 100,00 %
04.10.2016 16:32 17,7 C 22,8 C 15,6 C 61 % 0 lf 1031,3 hPa 0,0 l/m 2 min 0 min 345 W/m 20,9 km/h (4 Bft) 100,00 %
04.10.2016 16:34 17,7 C 22,2 C 15,6 C 61 % 0 lf 1031,3 hPa 0,0 l/m 2 min 0 min 339 W/m 31,4 km/h (5 Bft) 100,00 %
04.10.2016 16:36 17,7 C 22,8 C 15,6 C 61 % 0 lf 1031,2 hPa 0,0 l/m 2 min 0 min 333 W/m 23,0 km/h (4 Bft) 100,00 %
04.10.2016 16:38 17,8 C 23,3 C 15,6 C 61 % 0 lf 1031,2 hPa 0,0 l/m 2 min 0 min 327 W/m 23,0 km/h (4 Bft) 100,00 %
04.10.2016 16:40 17,8 C 23,3 C 15,6 C 61 % 0 lf 1031,3 hPa 0,0 l/m 2 min 0 min 321 W/m 37,7 km/h (5 Bft) 95,65 %
04.10.2016 16:42 17,8 C 23,3 C 15,6 C 61 % 0 lf 1031,3 hPa 0,0 l/m 2 min 0 min 314 W/m 39,7 km/h (6 Bft) 97,87 %
04.10.2016 16:44 17,8 C 23,3 C 15,6 C 60 % 0 lf 1031,2 hPa 0,0 l/m 2 min 0 min 309 W/m 33,5 km/h (5 Bft) 95,74 %
04.10.2016 16:46 17,7 C 22,8 C 15,6 C 60 % 0 lf 1031,2 hPa 0,0 l/m 2 min 0 min 304 W/m 35,6 km/h (5 Bft) 97,87 %
04.10.2016 16:48 17,7 C 22,2 C 15,6 C 60 % 0 lf 1031,2 hPa 0,0 l/m 2 min 0 min 298 W/m 31,4 km/h (5 Bft) 97,87 %
04.10.2016 16:50 17,7 C 21,7 C 15,6 C 61 % 0 lf 1031,2 hPa 0,0 l/m 2 min 0 min 291 W/m 29,3 km/h (5 Bft) 95,74 %
04.10.2016 16:52 17,7 C 21,7 C 15,6 C 60 % 0 lf 1031,2 hPa 0,0 l/m 2 min 0 min 283 W/m 29,3 km/h (5 Bft) 97,83 %
04.10.2016 16:54 17,7 C 22,8 C 15,6 C 61 % 0 lf 1031,2 hPa 0,0 l/m 2 min 0 min 275 W/m 25,1 km/h (4 Bft) 95,74 %
04.10.2016 16:56 17,7 C 22,8 C 15,6 C 61 % 0 lf 1031,3 hPa 0,0 l/m 2 min 0 min 268 W/m 31,4 km/h (5 Bft) 95,74 %
04.10.2016 16:58 17,7 C 22,2 C 15,6 C 60 % 0 lf 1031,2 hPa 0,0 l/m 2 min 0 min 266 W/m 31,4 km/h (5 Bft) 97,87 %
04.10.2016 17:00 17,7 C 21,7 C 15,6 C 61 % 0 lf 1031,2 hPa 0,0 l/m 2 min 0 min 260 W/m 27,2 km/h (4 Bft) 95,74 %
04.10.2016 17:02 17,7 C 22,2 C 15,6 C 61 % 0 lf 1031,2 hPa 0,0 l/m 2 min 0 min 253 W/m 23,0 km/h (4 Bft) 97,87 %
04.10.2016 17:04 17,7 C 22,2 C 15,6 C 62 % 0 lf 1031,2 hPa 0,0 l/m 2 min 0 min 249 W/m 23,0 km/h (4 Bft) 97,83 %
04.10.2016 17:06 17,7 C 22,8 C 15,6 C 62 % 0 lf 1031,2 hPa 0,0 l/m 2 min 0 min 244 W/m 27,2 km/h (4 Bft) 97,87 %
04.10.2016 17:08 17,7 C 22,2 C 15,6 C 62 % 0 lf 1031,2 hPa 0,0 l/m 2 min 0 min 237 W/m 23,0 km/h (4 Bft) 97,87 %
04.10.2016 17:10 17,7 C 21,7 C 15,6 C 61 % 0 lf 1031,2 hPa 0,0 l/m 2 min 0 min 232 W/m 23,0 km/h (4 Bft) 97,87 %
04.10.2016 17:12 17,7 C 21,1 C 15,6 C 61 % 0 lf 1031,2 hPa 0,0 l/m 2 min 0 min 224 W/m 20,9 km/h (4 Bft) 97,87 %
04.10.2016 17:14 17,7 C 21,1 C 15,6 C 61 % 0 lf 1031,2 hPa 0,0 l/m 2 min 0 min 220 W/m 31,4 km/h (5 Bft) 91,49 %
04.10.2016 17:16 17,6 C 21,1 C 15,0 C 61 % 0 lf 1031,2 hPa 0,0 l/m 2 min 0 min 210 W/m 31,4 km/h (5 Bft) 97,83 %
04.10.2016 17:18 17,6 C 21,1 C 15,0 C 61 % 0 lf 1031,2 hPa 0,0 l/m 2 min 0 min 202 W/m 25,1 km/h (4 Bft) 95,74 %
04.10.2016 17:20 17,6 C 20,6 C 15,0 C 61 % 0 lf 1031,3 hPa 0,0 l/m 2 min 0 min 199 W/m 29,3 km/h (5 Bft) 97,87 %
04.10.2016 17:22 17,5 C 20,6 C 15,0 C 61 % 0 lf 1031,2 hPa 0,0 l/m 2 min 0 min 193 W/m 33,5 km/h (5 Bft) 97,87 %
04.10.2016 17:24 17,4 C 20,6 C 15,0 C 61 % 0 lf 1031,2 hPa 0,0 l/m 2 min 0 min 195 W/m 27,2 km/h (4 Bft) 93,62 %
04.10.2016 17:26 17,4 C 20,6 C 15,0 C 61 % 0 lf 1031,2 hPa 0,0 l/m 2 min 0 min 186 W/m 31,4 km/h (5 Bft) 95,74 %
04.10.2016 17:28 17,4 C 20,0 C 15,0 C 61 % 0 lf 1031,2 hPa 0,0 l/m 2 min 0 min 179 W/m 39,7 km/h (6 Bft) 91,30 %
04.10.2016 17:30 17,3 C 20,0 C 15,0 C 60 % 0 lf 1031,2 hPa 0,0 l/m 2 min 0 min 170 W/m 33,5 km/h (5 Bft) 95,74 %
04.10.2016 17:32 17,3 C 20,0 C 15,0 C 60 % 0 lf 1031,2 hPa 0,0 l/m 2 min 0 min 161 W/m 25,1 km/h (4 Bft) 97,87 %
04.10.2016 17:34 17,3 C 21,1 C 15,0 C 61 % 0 lf 1031,2 hPa 0,0 l/m 2 min 0 min 155 W/m 23,0 km/h (4 Bft) 95,74 %
04.10.2016 17:36 17,3 C 20,6 C 15,0 C 61 % 0 lf 1031,2 hPa 0,0 l/m 2 min 0 min 147 W/m 23,0 km/h (4 Bft) 95,74 %
04.10.2016 17:38 17,2 C 20,0 C 15,0 C 61 % 0 lf 1031,2 hPa 0,0 l/m 2 min 0 min 140 W/m 18,8 km/h (3 Bft) 95,74 %
04.10.2016 17:40 17,2 C 20,6 C 15,0 C 61 % 0 lf 1031,2 hPa 0,0 l/m 2 min 0 min 136 W/m 16,7 km/h (3 Bft) 95,65 %
04.10.2016 17:42 17,2 C 19,4 C 15,0 C 61 % 0 lf 1031,2 hPa 0,0 l/m 2 min 0 min 132 W/m 27,2 km/h (4 Bft) 93,62 %
04.10.2016 17:44 17,1 C 18,3 C 15,0 C 61 % 0 lf 1031,2 hPa 0,0 l/m 2 min 0 min 125 W/m 27,2 km/h (4 Bft) 95,74 %
04.10.2016 17:46 17,1 C 17,8 C 14,4 C 61 % 0 lf 1031,2 hPa 0,0 l/m 2 min 0 min 121 W/m 18,8 km/h (3 Bft) 93,62 %
04.10.2016 17:48 17,0 C 17,2 C 14,4 C 62 % 0 lf 1031,2 hPa 0,0 l/m 2 min 0 min 119 W/m 20,9 km/h (4 Bft) 91,49 %
04.10.2016 17:50 16,9 C 16,7 C 14,4 C 61 % 0 lf 1031,2 hPa 0,0 l/m 2 min 0 min 111 W/m 20,9 km/h (4 Bft) 95,74 %
04.10.2016 17:52 16,9 C 16,7 C 14,4 C 62 % 0 lf 1031,2 hPa 0,0 l/m 2 min 0 min 103 W/m 23,0 km/h (4 Bft) 95,65 %
04.10.2016 17:54 16,9 C 16,7 C 14,4 C 62 % 0 lf 1031,2 hPa 0,0 l/m 2 min 0 min 102 W/m 16,7 km/h (3 Bft) 95,74 %
04.10.2016 17:56 16,8 C 16,7 C 14,4 C 62 % 0 lf 1031,3 hPa 0,0 l/m 2 min 0 min 109 W/m 14,6 km/h (3 Bft) 95,74 %
04.10.2016 17:58 16,7 C 16,7 C 14,4 C 61 % 0 lf 1031,4 hPa 0,0 l/m 2 min 0 min 110 W/m 29,3 km/h (5 Bft) 91,49 %
04.10.2016 18:00 16,7 C 16,7 C 14,4 C 61 % 0 lf 1031,3 hPa 0,0 l/m 2 min 0 min 111 W/m 25,1 km/h (4 Bft) 95,74 %
04.10.2016 18:02 16,6 C 16,7 C 14,4 C 61 % 0 lf 1031,3 hPa 0,0 l/m 2 min 0 min 116 W/m 29,3 km/h (5 Bft) 93,48 %
04.10.2016 18:04 16,6 C 16,7 C 14,4 C 61 % 0 lf 1031,3 hPa 0,0 l/m 2 min 0 min 93 W/m 20,9 km/h (4 Bft) 93,62 %
04.10.2016 18:06 16,6 C 16,1 C 13,9 C 62 % 0 lf 1031,3 hPa 0,0 l/m 2 min 0 min 103 W/m 20,9 km/h (4 Bft) 95,74 %
04.10.2016 18:08 16,5 C 16,1 C 13,9 C 62 % 0 lf 1031,3 hPa 0,0 l/m 2 min 0 min 272 W/m 23,0 km/h (4 Bft) 95,74 %
04.10.2016 18:10 16,4 C 16,1 C 13,9 C 62 % 0 lf 1031,3 hPa 0,0 l/m 2 min 0 min 315 W/m 20,9 km/h (4 Bft) 97,87 %
04.10.2016 18:12 16,4 C 16,1 C 13,9 C 62 % 0 lf 1031,4 hPa 0,0 l/m 2 min 0 min 260 W/m 35,6 km/h (5 Bft) 95,74 %
04.10.2016 18:14 16,3 C 16,1 C 13,9 C 61 % 0 lf 1031,4 hPa 0,0 l/m 2 min 0 min 252 W/m 29,3 km/h (5 Bft) 97,83 %
04.10.2016 18:16 16,3 C 16,1 C 13,9 C 61 % 0 lf 1031,5 hPa 0,0 l/m 2 min 0 min 244 W/m 23,0 km/h (4 Bft) 93,62 %
04.10.2016 18:18 16,3 C 16,1 C 13,9 C 61 % 0 lf 1031,5 hPa 0,0 l/m 2 min 0 min 241 W/m 18,8 km/h (3 Bft) 97,87 %
04.10.2016 18:20 16,2 C 16,1 C 13,9 C 61 % 0 lf 1031,5 hPa 0,0 l/m 2 min 0 min 232 W/m 29,3 km/h (5 Bft) 95,74 %
04.10.2016 18:22 16,2 C 16,1 C 13,9 C 62 % 0 lf 1031,5 hPa 0,0 l/m 2 min 0 min 224 W/m 27,2 km/h (4 Bft) 97,87 %
04.10.2016 18:24 16,2 C 16,1 C 13,9 C 61 % 0 lf 1031,5 hPa 0,0 l/m 2 min 0 min 218 W/m 25,1 km/h (4 Bft) 95,74 %
04.10.2016 18:26 16,1 C 16,1 C 13,3 C 62 % 0 lf 1031,5 hPa 0,0 l/m 2 min 0 min 208 W/m 16,7 km/h (3 Bft) 95,65 %
04.10.2016 18:28 16,1 C 16,1 C 13,9 C 62 % 0 lf 1031,5 hPa 0,0 l/m 2 min 0 min 207 W/m 23,0 km/h (4 Bft) 97,87 %
04.10.2016 18:30 16,1 C 15,6 C 13,3 C 62 % 0 lf 1031,6 hPa 0,0 l/m 2 min 0 min 207 W/m 18,8 km/h (3 Bft) 95,74 %
04.10.2016 18:32 16,0 C 15,6 C 13,3 C 62 % 0 lf 1031,6 hPa 0,0 l/m 2 min 0 min 205 W/m 18,8 km/h (3 Bft) 97,87 %
04.10.2016 18:34 15,9 C 15,6 C 13,3 C 63 % 0 lf 1031,5 hPa 0,0 l/m 2 min 0 min 201 W/m 23,0 km/h (4 Bft) 95,74 %
04.10.2016 18:36 15,9 C 15,6 C 13,3 C 63 % 0 lf 1031,6 hPa 0,0 l/m 2 min 0 min 199 W/m 16,7 km/h (3 Bft) 95,74 %
04.10.2016 18:38 15,8 C 15,0 C 13,3 C 63 % 0 lf 1031,6 hPa 0,0 l/m 2 min 0 min 197 W/m 16,7 km/h (3 Bft) 95,65 %
04.10.2016 18:40 15,8 C 15,0 C 13,3 C 63 % 0 lf 1031,5 hPa 0,0 l/m 2 min 0 min 198 W/m 25,1 km/h (4 Bft) 97,87 %
04.10.2016 18:42 15,7 C 15,0 C 12,8 C 63 % 0 lf 1031,5 hPa 0,0 l/m 2 min 0 min 195 W/m 20,9 km/h (4 Bft) 97,87 %
04.10.2016 18:44 15,7 C 15,0 C 12,8 C 63 % 0 lf 1031,6 hPa 0,0 l/m 2 min 0 min 193 W/m 23,0 km/h (4 Bft) 93,62 %
04.10.2016 18:46 15,6 C 15,0 C 12,8 C 63 % 0 lf 1031,6 hPa 0,0 l/m 2 min 0 min 198 W/m 23,0 km/h (4 Bft) 95,74 %
04.10.2016 18:48 15,6 C 15,0 C 12,8 C 63 % 0 lf 1031,6 hPa 0,0 l/m 2 min 0 min 199 W/m 25,1 km/h (4 Bft) 97,87 %
04.10.2016 18:50 15,5 C 15,0 C 12,8 C 63 % 0 lf 1031,7 hPa 0,0 l/m 2 min 0 min 161 W/m 25,1 km/h (4 Bft) 97,83 %
04.10.2016 18:52 15,4 C 15,0 C 12,8 C 63 % 0 lf 1031,7 hPa 0,0 l/m 2 min 0 min 87 W/m 23,0 km/h (4 Bft) 97,87 %
04.10.2016 18:54 15,4 C 15,0 C 12,8 C 63 % 0 lf 1031,7 hPa 0,0 l/m 0 min 0 min 82 W/m 25,1 km/h (4 Bft) 97,87 %
04.10.2016 18:56 15,3 C 15,0 C 12,8 C 63 % 0 lf 1031,7 hPa 0,0 l/m 0 min 0 min 77 W/m 23,0 km/h (4 Bft) 97,87 %
04.10.2016 18:58 15,3 C 14,4 C 12,8 C 63 % 0 lf 1031,8 hPa 0,0 l/m 0 min 0 min 105 W/m 20,9 km/h (4 Bft) 97,87 %
04.10.2016 19:00 15,2 C 14,4 C 12,8 C 63 % 0 lf 1031,7 hPa 0,0 l/m 0 min 0 min 65 W/m 18,8 km/h (3 Bft) 93,62 %
04.10.2016 19:02 15,2 C 14,4 C 12,8 C 63 % 0 lf 1031,7 hPa 0,0 l/m 0 min 0 min 57 W/m 16,7 km/h (3 Bft) 97,83 %
04.10.2016 19:04 15,1 C 14,4 C 12,8 C 63 % 0 lf 1031,7 hPa 0,0 l/m 0 min 0 min 47 W/m 18,8 km/h (3 Bft) 95,74 %
04.10.2016 19:06 15,1 C 14,4 C 12,2 C 64 % 0 lf 1031,7 hPa 0,0 l/m 0 min 0 min 45 W/m 18,8 km/h (3 Bft) 97,87 %
04.10.2016 19:08 15,0 C 14,4 C 12,2 C 64 % 0 lf 1031,8 hPa 0,0 l/m 0 min 0 min 87 W/m 18,8 km/h (3 Bft) 97,87 %
04.10.2016 19:10 14,9 C 14,4 C 12,2 C 64 % 0 lf 1031,8 hPa 0,0 l/m 0 min 0 min 129 W/m 23,0 km/h (4 Bft) 100,00 %
04.10.2016 19:12 14,9 C 14,4 C 12,2 C 64 % 0 lf 1031,8 hPa 0,0 l/m 0 min 0 min 151 W/m 25,1 km/h (4 Bft) 100,00 %
04.10.2016 19:14 14,9 C 13,9 C 12,2 C 64 % 0 lf 1031,8 hPa 0,0 l/m 0 min 0 min 164 W/m 12,6 km/h (3 Bft) 97,87 %
04.10.2016 19:16 14,8 C 14,4 C 12,2 C 64 % 0 lf 1031,9 hPa 0,0 l/m 0 min 0 min 168 W/m 20,9 km/h (4 Bft) 100,00 %
04.10.2016 19:18 14,8 C 13,9 C 12,2 C 64 % 0 lf 1031,9 hPa 0,0 l/m 0 min 0 min 165 W/m 18,8 km/h (3 Bft) 100,00 %
04.10.2016 19:20 14,7 C 13,9 C 12,2 C 64 % 0 lf 1031,9 hPa 0,0 l/m 0 min 0 min 0 W/m 18,8 km/h (3 Bft) 100,00 %
04.10.2016 19:22 14,7 C 13,9 C 12,2 C 65 % 0 lf 1031,9 hPa 0,0 l/m 0 min 0 min 0 W/m 14,6 km/h (3 Bft) 100,00 %
04.10.2016 19:24 14,6 C 13,9 C 11,7 C 65 % 0 lf 1032,0 hPa 0,0 l/m 0 min 0 min 0 W/m 20,9 km/h (4 Bft) 97,83 %
04.10.2016 19:26 14,6 C 13,9 C 11,7 C 65 % 0 lf 1032,0 hPa 0,0 l/m 0 min 0 min 0 W/m 12,6 km/h (3 Bft) 100,00 %
04.10.2016 19:28 14,6 C 13,9 C 11,7 C 65 % 0 lf 1032,0 hPa 0,0 l/m 0 min 0 min 0 W/m 8,4 km/h (2 Bft) 100,00 %
04.10.2016 19:30 14,5 C 13,9 C 11,7 C 65 % 0 lf 1032,0 hPa 0,0 l/m 0 min 0 min 0 W/m 12,6 km/h (3 Bft) 95,74 %
04.10.2016 19:32 14,4 C 13,3 C 11,7 C 65 % 0 lf 1032,0 hPa 0,0 l/m 0 min 0 min 0 W/m 14,6 km/h (3 Bft) 100,00 %
04.10.2016 19:34 14,4 C 13,3 C 11,7 C 66 % 0 lf 1032,1 hPa 0,0 l/m 0 min 0 min 0 W/m 12,6 km/h (3 Bft) 100,00 %
04.10.2016 19:36 14,4 C 13,3 C 11,7 C 66 % 0 lf 1032,0 hPa 0,0 l/m 0 min 0 min 0 W/m 14,6 km/h (3 Bft) 97,83 %
04.10.2016 19:38 14,3 C 13,3 C 11,7 C 66 % 0 lf 1032,0 hPa 0,0 l/m 0 min 0 min 0 W/m 14,6 km/h (3 Bft) 100,00 %
04.10.2016 19:40 14,2 C 13,3 C 11,7 C 66 % 0 lf 1032,0 hPa 0,0 l/m 0 min 0 min 0 W/m 16,7 km/h (3 Bft) 100,00 %
04.10.2016 19:42 14,2 C 13,3 C 11,1 C 67 % 0 lf 1032,1 hPa 0,0 l/m 0 min 0 min 0 W/m 16,7 km/h (3 Bft) 100,00 %
04.10.2016 19:44 14,2 C 12,8 C 11,1 C 67 % 0 lf 1032,1 hPa 0,0 l/m 0 min 0 min 0 W/m 14,6 km/h (3 Bft) 97,87 %
04.10.2016 19:46 14,2 C 12,8 C 11,7 C 67 % 0 lf 1032,0 hPa 0,0 l/m 0 min 0 min 0 W/m 14,6 km/h (3 Bft) 97,87 %
04.10.2016 19:48 14,2 C 12,8 C 11,7 C 67 % 0 lf 1032,0 hPa 0,0 l/m 0 min 0 min 0 W/m 16,7 km/h (3 Bft) 95,65 %
04.10.2016 19:50 14,1 C 13,3 C 11,7 C 67 % 0 lf 1032,0 hPa 0,0 l/m 0 min 0 min 0 W/m 14,6 km/h (3 Bft) 97,87 %
04.10.2016 19:52 14,0 C 12,8 C 11,1 C 67 % 0 lf 1032,1 hPa 0,0 l/m 0 min 0 min 0 W/m 16,7 km/h (3 Bft) 100,00 %
04.10.2016 19:54 13,9 C 12,8 C 11,7 C 68 % 0 lf 1032,1 hPa 0,0 l/m 0 min 0 min 0 W/m 16,7 km/h (3 Bft) 95,74 %
04.10.2016 19:56 13,9 C 13,3 C 11,1 C 68 % 0 lf 1032,1 hPa 0,0 l/m 0 min 0 min 0 W/m 14,6 km/h (3 Bft) 95,74 %
04.10.2016 19:58 13,8 C 12,8 C 11,1 C 68 % 0 lf 1032,2 hPa 0,0 l/m 0 min 0 min 0 W/m 16,7 km/h (3 Bft) 93,62 %
04.10.2016 20:00 13,8 C 12,8 C 11,1 C 68 % 0 lf 1032,1 hPa 0,0 l/m 0 min 0 min 0 W/m 14,6 km/h (3 Bft) 95,65 %
04.10.2016 20:02 13,8 C 12,8 C 11,1 C 68 % 0 lf 1032,2 hPa 0,0 l/m 0 min 0 min 0 W/m 10,5 km/h (2 Bft) 93,62 %
04.10.2016 20:04 13,7 C 12,8 C 11,1 C 68 % 0 lf 1032,2 hPa 0,0 l/m 0 min 0 min 0 W/m 18,8 km/h (3 Bft) 93,62 %
04.10.2016 20:06 13,7 C 12,8 C 11,1 C 69 % 0 lf 1032,2 hPa 0,0 l/m 0 min 0 min 0 W/m 14,6 km/h (3 Bft) 95,74 %
04.10.2016 20:08 13,7 C 12,8 C 10,6 C 69 % 0 lf 1032,3 hPa 0,0 l/m 0 min 0 min 0 W/m 10,5 km/h (2 Bft) 93,62 %
04.10.2016 20:10 13,6 C 12,8 C 11,1 C 69 % 0 lf 1032,2 hPa 0,0 l/m 0 min 0 min 0 W/m 18,8 km/h (3 Bft) 93,62 %
04.10.2016 20:12 13,6 C 12,8 C 11,1 C 69 % 0 lf 1032,2 hPa 0,0 l/m 0 min 0 min 0 W/m 14,6 km/h (3 Bft) 93,48 %
04.10.2016 20:14 13,6 C 12,8 C 11,1 C 69 % 0 lf 1032,2 hPa 0,0 l/m 0 min 0 min 0 W/m 23,0 km/h (4 Bft) 91,49 %
04.10.2016 20:16 13,5 C 12,8 C 11,1 C 69 % 0 lf 1032,2 hPa 0,0 l/m 0 min 0 min 0 W/m 16,7 km/h (3 Bft) 93,62 %
04.10.2016 20:18 13,4 C 12,8 C 11,1 C 69 % 0 lf 1032,3 hPa 0,0 l/m 0 min 0 min 0 W/m 23,0 km/h (4 Bft) 95,74 %
04.10.2016 20:20 13,4 C 12,8 C 11,1 C 69 % 0 lf 1032,2 hPa 0,0 l/m 0 min 0 min 0 W/m 16,7 km/h (3 Bft) 95,74 %
04.10.2016 20:22 13,4 C 12,8 C 11,1 C 70 % 0 lf 1032,2 hPa 0,0 l/m 0 min 0 min 0 W/m 16,7 km/h (3 Bft) 89,36 %
04.10.2016 20:24 13,4 C 12,8 C 11,1 C 70 % 0 lf 1032,2 hPa 0,0 l/m 0 min 0 min 0 W/m 18,8 km/h (3 Bft) 93,48 %
04.10.2016 20:26 13,3 C 13,3 C 11,1 C 70 % 0 lf 1032,3 hPa 0,0 l/m 0 min 0 min 0 W/m 23,0 km/h (4 Bft) 95,74 %
04.10.2016 20:28 13,3 C 13,3 C 11,1 C 70 % 0 lf 1032,3 hPa 0,0 l/m 0 min 0 min 0 W/m 14,6 km/h (3 Bft) 91,49 %
04.10.2016 20:30 13,3 C 12,8 C 10,6 C 70 % 0 lf 1032,2 hPa 0,0 l/m 0 min 0 min 0 W/m 27,2 km/h (4 Bft) 93,62 %
04.10.2016 20:32 13,3 C 12,8 C 11,1 C 70 % 0 lf 1032,3 hPa 0,0 l/m 0 min 0 min 0 W/m 18,8 km/h (3 Bft) 95,74 %
04.10.2016 20:34 13,3 C 12,8 C 11,1 C 70 % 0 lf 1032,3 hPa 0,0 l/m 0 min 0 min 0 W/m 16,7 km/h (3 Bft) 95,65 %
04.10.2016 20:36 13,2 C 12,8 C 10,6 C 71 % 0 lf 1032,3 hPa 0,0 l/m 0 min 0 min 0 W/m 12,6 km/h (3 Bft) 95,74 %
04.10.2016 20:38 13,2 C 12,8 C 10,6 C 71 % 0 lf 1032,4 hPa 0,0 l/m 0 min 0 min 0 W/m 8,4 km/h (2 Bft) 93,62 %
04.10.2016 20:40 13,2 C 12,8 C 10,6 C 71 % 0 lf 1032,3 hPa 0,0 l/m 0 min 0 min 0 W/m 14,6 km/h (3 Bft) 93,62 %
04.10.2016 20:42 13,2 C 12,8 C 10,6 C 71 % 0 lf 1032,3 hPa 0,0 l/m 0 min 0 min 0 W/m 14,6 km/h (3 Bft) 95,74 %
04.10.2016 20:44 13,2 C 12,2 C 10,6 C 71 % 0 lf 1032,4 hPa 0,0 l/m 0 min 0 min 0 W/m 16,7 km/h (3 Bft) 95,74 %
04.10.2016 20:46 13,1 C 12,2 C 10,6 C 71 % 0 lf 1032,4 hPa 0,0 l/m 0 min 0 min 0 W/m 14,6 km/h (3 Bft) 95,74 %
04.10.2016 20:48 13,1 C 12,2 C 10,6 C 71 % 0 lf 1032,4 hPa 0,0 l/m 0 min 0 min 0 W/m 14,6 km/h (3 Bft) 95,65 %
04.10.2016 20:50 13,1 C 12,2 C 10,6 C 71 % 0 lf 1032,4 hPa 0,0 l/m 0 min 0 min 0 W/m 10,5 km/h (2 Bft) 91,49 %
04.10.2016 20:52 13,1 C 12,2 C 10,6 C 72 % 0 lf 1032,4 hPa 0,0 l/m 0 min 0 min 0 W/m 14,6 km/h (3 Bft) 95,74 %
04.10.2016 20:54 13,0 C 12,2 C 10,6 C 72 % 0 lf 1032,4 hPa 0,0 l/m 0 min 0 min 0 W/m 16,7 km/h (3 Bft) 91,49 %
04.10.2016 20:56 12,9 C 12,2 C 10,6 C 72 % 0 lf 1032,4 hPa 0,0 l/m 0 min 0 min 0 W/m 12,6 km/h (3 Bft) 95,74 %
04.10.2016 20:58 12,9 C 12,2 C 10,6 C 72 % 0 lf 1032,4 hPa 0,0 l/m 0 min 0 min 0 W/m 18,8 km/h (3 Bft) 97,83 %
04.10.2016 21:00 12,9 C 12,2 C 10,0 C 72 % 0 lf 1032,4 hPa 0,0 l/m 0 min 0 min 0 W/m 14,6 km/h (3 Bft) 100,00 %
04.10.2016 21:02 12,9 C 12,2 C 10,0 C 72 % 0 lf 1032,4 hPa 0,0 l/m 0 min 0 min 0 W/m 16,7 km/h (3 Bft) 95,74 %
04.10.2016 21:04 12,9 C 12,2 C 10,6 C 72 % 0 lf 1032,4 hPa 0,0 l/m 0 min 0 min 0 W/m 14,6 km/h (3 Bft) 97,87 %
04.10.2016 21:06 12,8 C 12,2 C 10,6 C 72 % 0 lf 1032,4 hPa 0,0 l/m 0 min 0 min 0 W/m 16,7 km/h (3 Bft) 97,87 %
04.10.2016 21:08 12,8 C 12,2 C 10,6 C 73 % 0 lf 1032,4 hPa 0,0 l/m 0 min 0 min 0 W/m 16,7 km/h (3 Bft) 100,00 %
04.10.2016 21:10 12,8 C 12,2 C 10,6 C 73 % 0 lf 1032,4 hPa 0,0 l/m 0 min 0 min 0 W/m 10,5 km/h (2 Bft) 100,00 %
04.10.2016 21:12 12,8 C 12,2 C 10,0 C 73 % 0 lf 1032,4 hPa 0,0 l/m 0 min 0 min 0 W/m 14,6 km/h (3 Bft) 91,49 %
04.10.2016 21:14 12,7 C 12,2 C 10,0 C 73 % 0 lf 1032,4 hPa 0,0 l/m 0 min 0 min 0 W/m 14,6 km/h (3 Bft) 97,87 %
04.10.2016 21:16 12,7 C 12,2 C 10,0 C 73 % 0 lf 1032,5 hPa 0,0 l/m 0 min 0 min 0 W/m 10,5 km/h (2 Bft) 97,87 %
04.10.2016 21:18 12,7 C 12,2 C 10,0 C 73 % 0 lf 1032,5 hPa 0,0 l/m 0 min 0 min 0 W/m 10,5 km/h (2 Bft) 97,87 %
04.10.2016 21:20 12,7 C 12,2 C 10,0 C 73 % 0 lf 1032,5 hPa 0,0 l/m 0 min 0 min 0 W/m 10,5 km/h (2 Bft) 95,74 %
04.10.2016 21:22 12,7 C 12,2 C 10,0 C 74 % 0 lf 1032,5 hPa 0,0 l/m 0 min 0 min 0 W/m 10,5 km/h (2 Bft) 97,83 %
04.10.2016 21:24 12,6 C 12,2 C 10,0 C 74 % 0 lf 1032,5 hPa 0,0 l/m 0 min 0 min 0 W/m 20,9 km/h (4 Bft) 93,62 %
04.10.2016 21:26 12,6 C 12,2 C 10,0 C 74 % 0 lf 1032,5 hPa 0,0 l/m 0 min 0 min 0 W/m 16,7 km/h (3 Bft) 93,62 %
04.10.2016 21:28 12,6 C 12,2 C 10,0 C 74 % 0 lf 1032,5 hPa 0,0 l/m 0 min 0 min 0 W/m 10,5 km/h (2 Bft) 97,87 %
04.10.2016 21:30 12,5 C 11,7 C 10,0 C 74 % 0 lf 1032,5 hPa 0,0 l/m 0 min 0 min 0 W/m 10,5 km/h (2 Bft) 97,87 %
04.10.2016 21:32 12,5 C 11,7 C 10,0 C 74 % 0 lf 1032,5 hPa 0,0 l/m 0 min 0 min 0 W/m 18,8 km/h (3 Bft) 95,74 %
04.10.2016 21:34 12,4 C 11,7 C 10,0 C 74 % 0 lf 1032,5 hPa 0,0 l/m 0 min 0 min 0 W/m 20,9 km/h (4 Bft) 95,65 %
04.10.2016 21:36 12,4 C 11,7 C 10,0 C 74 % 0 lf 1032,5 hPa 0,0 l/m 0 min 0 min 0 W/m 16,7 km/h (3 Bft) 97,87 %
04.10.2016 21:38 12,4 C 11,7 C 10,0 C 75 % 0 lf 1032,5 hPa 0,0 l/m 0 min 0 min 0 W/m 18,8 km/h (3 Bft) 97,87 %
04.10.2016 21:40 12,3 C 11,7 C 10,0 C 75 % 0 lf 1032,5 hPa 0,0 l/m 0 min 0 min 0 W/m 12,6 km/h (3 Bft) 93,62 %
04.10.2016 21:42 12,3 C 11,7 C 10,0 C 75 % 0 lf 1032,5 hPa 0,0 l/m 0 min 0 min 0 W/m 10,5 km/h (2 Bft) 91,49 %
04.10.2016 21:44 12,3 C 11,7 C 10,0 C 75 % 0 lf 1032,5 hPa 0,0 l/m 0 min 0 min 0 W/m 16,7 km/h (3 Bft) 95,74 %
04.10.2016 21:45 12,2 C 11,7 C 10,0 C 75 % 0 lf 1032,5 hPa 0,0 l/m 0 min 0 min 0 W/m 16,7 km/h (3 Bft) 100,00 %
04.10.2016 21:46 12,2 C 11,7 C 10,0 C 75 % 0 lf 1032,5 hPa 0,0 l/m 0 min 0 min 0 W/m 14,6 km/h (3 Bft) 100,00 %
04.10.2016 21:47 12,2 C 11,7 C 10,0 C 75 % 0 lf 1032,5 hPa 0,0 l/m 0 min 0 min 0 W/m 8,4 km/h (2 Bft) 95,65 %
04.10.2016 21:48 12,2 C 11,7 C 10,0 C 75 % 0 lf 1032,5 hPa 0,0 l/m 0 min 0 min 0 W/m 10,5 km/h (2 Bft) 100,00 %
04.10.2016 21:52 12,1 C 11,7 C 10,0 C 75 % 0 lf 1032,5 hPa 0,0 l/m 0 min 0 min 0 W/m 10,5 km/h (2 Bft) 96,41 %
04.10.2016 21:54 12,1 C 11,7 C 9,4 C 76 % 0 lf 1032,5 hPa 0,0 l/m 0 min 0 min 0 W/m 14,6 km/h (3 Bft) 95,00 %
04.10.2016 21:56 12,1 C 11,7 C 9,4 C 76 % 0 lf 1032,5 hPa 0,0 l/m 0 min 0 min 0 W/m 14,6 km/h (3 Bft) 95,65 %
04.10.2016 21:58 12,1 C 11,7 C 10,0 C 76 % 0 lf 1032,6 hPa 0,0 l/m 0 min 0 min 0 W/m 12,6 km/h (3 Bft) 95,74 %
04.10.2016 22:00 12,1 C 11,7 C 9,4 C 76 % 0 lf 1032,6 hPa 0,0 l/m 0 min 0 min 0 W/m 14,6 km/h (3 Bft) 95,74 %
04.10.2016 22:02 12,0 C 11,7 C 9,4 C 76 % 0 lf 1032,6 hPa 0,0 l/m 0 min 0 min 0 W/m 12,6 km/h (3 Bft) 95,74 %
04.10.2016 22:04 12,0 C 11,7 C 9,4 C 76 % 0 lf 1032,6 hPa 0,0 l/m 0 min 0 min 0 W/m 14,6 km/h (3 Bft) 97,87 %
04.10.2016 22:06 11,9 C 11,7 C 9,4 C 76 % 0 lf 1032,5 hPa 0,0 l/m 0 min 0 min 0 W/m 10,5 km/h (2 Bft) 97,83 %
04.10.2016 22:08 11,9 C 11,7 C 9,4 C 76 % 0 lf 1032,5 hPa 0,0 l/m 0 min 0 min 0 W/m 8,4 km/h (2 Bft) 100,00 %
04.10.2016 22:10 11,9 C 11,7 C 9,4 C 76 % 0 lf 1032,5 hPa 0,0 l/m 0 min 0 min 0 W/m 14,6 km/h (3 Bft) 97,87 %
04.10.2016 22:12 11,9 C 11,1 C 9,4 C 76 % 0 lf 1032,6 hPa 0,0 l/m 0 min 0 min 0 W/m 10,5 km/h (2 Bft) 100,00 %
04.10.2016 22:14 11,9 C 11,1 C 9,4 C 76 % 0 lf 1032,6 hPa 0,0 l/m 0 min 0 min 0 W/m 10,5 km/h (2 Bft) 97,87 %
04.10.2016 22:16 11,8 C 11,1 C 8,9 C 76 % 0 lf 1032,6 hPa 0,0 l/m 0 min 0 min 0 W/m 14,6 km/h (3 Bft) 97,87 %
04.10.2016 22:18 11,8 C 11,1 C 9,4 C 76 % 0 lf 1032,7 hPa 0,0 l/m 0 min 0 min 0 W/m 14,6 km/h (3 Bft) 93,48 %
04.10.2016 22:20 11,8 C 11,1 C 8,9 C 77 % 0 lf 1032,5 hPa 0,0 l/m 0 min 0 min 0 W/m 16,7 km/h (3 Bft) 100,00 %
04.10.2016 22:22 11,7 C 11,1 C 9,4 C 77 % 0 lf 1032,5 hPa 0,0 l/m 0 min 0 min 0 W/m 14,6 km/h (3 Bft) 97,87 %
04.10.2016 22:24 11,7 C 11,1 C 9,4 C 77 % 0 lf 1032,5 hPa 0,0 l/m 0 min 0 min 0 W/m 14,6 km/h (3 Bft) 100,00 %
04.10.2016 22:26 11,7 C 11,1 C 9,4 C 77 % 0 lf 1032,6 hPa 0,0 l/m 0 min 0 min 0 W/m 14,6 km/h (3 Bft) 97,87 %
04.10.2016 22:28 11,7 C 11,1 C 9,4 C 77 % 0 lf 1032,6 hPa 0,0 l/m 0 min 0 min 0 W/m 14,6 km/h (3 Bft) 97,87 %
04.10.2016 22:30 11,6 C 11,1 C 9,4 C 77 % 0 lf 1032,6 hPa 0,0 l/m 0 min 0 min 0 W/m 14,6 km/h (3 Bft) 100,00 %
04.10.2016 22:32 11,6 C 11,1 C 8,9 C 77 % 0 lf 1032,6 hPa 0,0 l/m 0 min 0 min 0 W/m 10,5 km/h (2 Bft) 97,87 %
04.10.2016 22:34 11,6 C 11,1 C 8,9 C 77 % 0 lf 1032,6 hPa 0,0 l/m 0 min 0 min 0 W/m 16,7 km/h (3 Bft) 100,00 %
04.10.2016 22:36 11,5 C 11,1 C 8,9 C 78 % 0 lf 1032,6 hPa 0,0 l/m 0 min 0 min 0 W/m 10,5 km/h (2 Bft) 95,74 %
04.10.2016 22:38 11,5 C 11,1 C 8,9 C 78 % 0 lf 1032,6 hPa 0,0 l/m 0 min 0 min 0 W/m 14,6 km/h (3 Bft) 97,87 %
04.10.2016 22:40 11,5 C 11,1 C 8,9 C 78 % 0 lf 1032,7 hPa 0,0 l/m 0 min 0 min 0 W/m 14,6 km/h (3 Bft) 100,00 %
04.10.2016 22:42 11,4 C 11,1 C 8,9 C 78 % 0 lf 1032,7 hPa 0,0 l/m 0 min 0 min 0 W/m 16,7 km/h (3 Bft) 95,65 %
04.10.2016 22:44 11,4 C 11,1 C 8,9 C 78 % 0 lf 1032,7 hPa 0,0 l/m 0 min 0 min 0 W/m 12,6 km/h (3 Bft) 100,00 %
04.10.2016 22:46 11,4 C 11,1 C 9,4 C 78 % 0 lf 1032,7 hPa 0,0 l/m 0 min 0 min 0 W/m 18,8 km/h (3 Bft) 100,00 %
04.10.2016 22:48 11,4 C 11,1 C 9,4 C 78 % 0 lf 1032,6 hPa 0,0 l/m 0 min 0 min 0 W/m 14,6 km/h (3 Bft) 97,87 %
04.10.2016 22:50 11,4 C 11,1 C 8,9 C 78 % 0 lf 1032,7 hPa 0,0 l/m 0 min 0 min 0 W/m 14,6 km/h (3 Bft) 100,00 %
04.10.2016 22:52 11,3 C 11,1 C 8,9 C 78 % 0 lf 1032,7 hPa 0,0 l/m 0 min 0 min 0 W/m 6,3 km/h (2 Bft) 100,00 %
04.10.2016 22:54 11,3 C 11,1 C 8,9 C 78 % 0 lf 1032,7 hPa 0,0 l/m 0 min 0 min 0 W/m 18,8 km/h (3 Bft) 93,48 %
04.10.2016 22:56 11,3 C 11,1 C 8,9 C 79 % 0 lf 1032,7 hPa 0,0 l/m 0 min 0 min 0 W/m 14,6 km/h (3 Bft) 100,00 %
04.10.2016 22:58 11,3 C 11,1 C 8,9 C 79 % 0 lf 1032,6 hPa 0,0 l/m 0 min 0 min 0 W/m 12,6 km/h (3 Bft) 100,00 %
04.10.2016 23:00 11,3 C 11,1 C 9,4 C 79 % 0 lf 1032,7 hPa 0,0 l/m 0 min 0 min 0 W/m 10,5 km/h (2 Bft) 100,00 %
04.10.2016 23:02 11,3 C 11,1 C 8,9 C 79 % 0 lf 1032,7 hPa 0,0 l/m 0 min 0 min 0 W/m 6,3 km/h (2 Bft) 100,00 %
04.10.2016 23:04 11,2 C 10,6 C 8,9 C 79 % 0 lf 1032,7 hPa 0,0 l/m 0 min 0 min 0 W/m 16,7 km/h (3 Bft) 100,00 %
04.10.2016 23:06 11,2 C 11,1 C 8,9 C 79 % 0 lf 1032,7 hPa 0,0 l/m 0 min 0 min 0 W/m 14,6 km/h (3 Bft) 97,83 %
04.10.2016 23:08 11,2 C 10,6 C 8,9 C 79 % 0 lf 1032,8 hPa 0,0 l/m 0 min 0 min 0 W/m 18,8 km/h (3 Bft) 97,87 %
04.10.2016 23:10 11,2 C 11,1 C 8,9 C 79 % 0 lf 1032,8 hPa 0,0 l/m 0 min 0 min 0 W/m 10,5 km/h (2 Bft) 93,62 %
04.10.2016 23:12 11,2 C 11,1 C 8,9 C 79 % 0 lf 1032,7 hPa 0,0 l/m 0 min 0 min 0 W/m 10,5 km/h (2 Bft) 97,87 %
04.10.2016 23:14 11,1 C 10,6 C 8,9 C 79 % 0 lf 1032,7 hPa 0,0 l/m 0 min 0 min 0 W/m 8,4 km/h (2 Bft) 95,74 %
04.10.2016 23:16 11,1 C 10,6 C 8,9 C 79 % 0 lf 1032,8 hPa 0,0 l/m 0 min 0 min 0 W/m 12,6 km/h (3 Bft) 95,74 %
04.10.2016 23:18 11,1 C 10,6 C 8,9 C 79 % 0 lf 1032,8 hPa 0,0 l/m 0 min 0 min 0 W/m 14,6 km/h (3 Bft) 95,65 %
04.10.2016 23:20 11,1 C 10,6 C 8,9 C 79 % 0 lf 1032,7 hPa 0,0 l/m 0 min 0 min 0 W/m 16,7 km/h (3 Bft) 97,87 %
04.10.2016 23:22 11,1 C 10,6 C 8,9 C 79 % 0 lf 1032,7 hPa 0,0 l/m 0 min 0 min 0 W/m 16,7 km/h (3 Bft) 98,08 %
04.10.2016 23:24 11,0 C 10,6 C 8,9 C 79 % 0 lf 1032,7 hPa 0,0 l/m 0 min 0 min 0 W/m 16,7 km/h (3 Bft) 95,74 %
04.10.2016 23:26 11,0 C 10,6 C 8,9 C 80 % 0 lf 1032,7 hPa 0,0 l/m 0 min 0 min 0 W/m 16,7 km/h (3 Bft) 95,74 %
04.10.2016 23:28 11,0 C 10,6 C 8,9 C 80 % 0 lf 1032,7 hPa 0,0 l/m 0 min 0 min 0 W/m 18,8 km/h (3 Bft) 93,48 %
04.10.2016 23:30 10,9 C 10,6 C 8,9 C 80 % 0 lf 1032,7 hPa 0,0 l/m 0 min 0 min 0 W/m 16,7 km/h (3 Bft) 91,49 %
04.10.2016 23:32 10,9 C 10,6 C 8,9 C 80 % 0 lf 1032,7 hPa 0,0 l/m 0 min 0 min 0 W/m 16,7 km/h (3 Bft) 95,74 %
04.10.2016 23:34 10,9 C 10,6 C 8,9 C 80 % 0 lf 1032,7 hPa 0,0 l/m 0 min 0 min 0 W/m 18,8 km/h (3 Bft) 97,87 %
04.10.2016 23:36 10,9 C 10,6 C 8,9 C 80 % 0 lf 1032,7 hPa 0,0 l/m 0 min 0 min 0 W/m 12,6 km/h (3 Bft) 93,62 %
04.10.2016 23:38 10,9 C 10,6 C 8,9 C 80 % 0 lf 1032,7 hPa 0,0 l/m 0 min 0 min 0 W/m 14,6 km/h (3 Bft) 91,49 %
04.10.2016 23:40 10,9 C 10,6 C 8,9 C 80 % 0 lf 1032,7 hPa 0,0 l/m 0 min 0 min 0 W/m 10,5 km/h (2 Bft) 97,83 %
04.10.2016 23:42 10,8 C 10,6 C 8,9 C 80 % 0 lf 1032,7 hPa 0,0 l/m 0 min 0 min 0 W/m 8,4 km/h (2 Bft) 93,62 %
04.10.2016 23:44 10,8 C 10,6 C 8,3 C 80 % 0 lf 1032,7 hPa 0,0 l/m 0 min 0 min 0 W/m 14,6 km/h (3 Bft) 97,87 %
04.10.2016 23:46 10,8 C 10,6 C 8,3 C 80 % 0 lf 1032,7 hPa 0,0 l/m 0 min 0 min 0 W/m 12,6 km/h (3 Bft) 91,49 %
04.10.2016 23:48 10,8 C 10,6 C 8,3 C 80 % 0 lf 1032,6 hPa 0,0 l/m 0 min 0 min 0 W/m 14,6 km/h (3 Bft) 87,23 %
04.10.2016 23:50 10,8 C 10,6 C 8,3 C 80 % 0 lf 1032,5 hPa 0,0 l/m 0 min 0 min 0 W/m 10,5 km/h (2 Bft) 91,49 %
04.10.2016 23:52 10,8 C 10,6 C 8,3 C 80 % 0 lf 1032,6 hPa 0,0 l/m 0 min 0 min 0 W/m 14,6 km/h (3 Bft) 90,48 %
04.10.2016 23:54 10,7 C 10,6 C 8,3 C 80 % 0 lf 1032,5 hPa 0,0 l/m 0 min 0 min 0 W/m 12,6 km/h (3 Bft) 93,62 %
04.10.2016 23:56 10,7 C 10,6 C 8,3 C 80 % 0 lf 1032,5 hPa 0,0 l/m 0 min 0 min 0 W/m 10,5 km/h (2 Bft) 91,49 %
04.10.2016 23:58 10,7 C 10,0 C 8,3 C 80 % 0 lf 1032,6 hPa 0,0 l/m 0 min 0 min 0 W/m 12,6 km/h (3 Bft) 93,62 %
_ Min-Zeit 04:02 03:28 03:26 16:44 10:52 00:00 - - - - 01:06 03:28
Minimum _ 9,3 C 7,8 C 6,7 C 60 % 0 lf 1028,1 hPa - - - - 0,0 km/h (0 Bft) 87,23 %
_ Max-Zeit 15:26 14:12 14:14 06:42 02:02 23:08 00:00 11:38 00:00 12:58 11:46 00:00
Maximum _ 18,2 C 26,1 C 17,8 C 98 % 15 lf 1032,8 hPa 0,0 l/m 2 min 0 min 772 W/m 39,7 km/h
O (6 Bft)
100,00 %
Durchschnitt _ 13,1 C 13,9 C 11,7 C 83 % 4 lf 1031,2 hPa #0,0 l/m #5:46 h #0 min. 187 W/m 15,2 km/h (3 Bft) 96,36 %
© 2016 W. Hausmann